Wetterdaten: Samstag, 03.04.2021
Datum Zeit Temp. Aussen Temp. o. S. Temp +5cm Feuchte Auss Luftdruck Regen Sonnenschein Regendauer Solar Windben Empfang
03.04.2021 00:00 6,2 C 5,6 C 3,4 C 84 % 1025,8 hPa 0,0 l/m 0 min 0 min 0 W/m 16,1 km/h (3 Bft) 100,00 %
03.04.2021 00:02 6,2 C 5,6 C 3,4 C 84 % 1025,8 hPa 0,0 l/m 0 min 0 min 0 W/m 0,0 km/h (0 Bft) 10,00 %
03.04.2021 00:04 6,2 C 5,6 C 3,4 C 84 % 1025,8 hPa 0,0 l/m 0 min 0 min 0 W/m 6,4 km/h (2 Bft) 92,68 %
03.04.2021 00:08 6,3 C 5,6 C 3,4 C 84 % 1025,8 hPa 0,0 l/m 0 min 0 min 0 W/m 9,7 km/h (2 Bft) 97,89 %
03.04.2021 00:10 6,2 C 5,6 C 3,4 C 84 % 1025,8 hPa 0,0 l/m 0 min 0 min 0 W/m 9,7 km/h (2 Bft) 100,00 %
03.04.2021 00:12 6,3 C 5,6 C 3,4 C 84 % 1025,9 hPa 0,0 l/m 0 min 0 min 0 W/m 6,4 km/h (2 Bft) 100,00 %
03.04.2021 00:14 6,2 C 5,6 C 3,4 C 85 % 1025,9 hPa 0,0 l/m 0 min 0 min 0 W/m 9,7 km/h (2 Bft) 97,87 %
03.04.2021 00:16 6,2 C 5,6 C 3,4 C 85 % 1025,9 hPa 0,0 l/m 0 min 0 min 0 W/m 9,7 km/h (2 Bft) 95,74 %
03.04.2021 00:18 6,2 C 5,6 C 3,4 C 85 % 1025,9 hPa 0,0 l/m 0 min 0 min 0 W/m 6,4 km/h (2 Bft) 100,00 %
03.04.2021 00:20 6,3 C 5,6 C 3,4 C 85 % 1025,9 hPa 0,0 l/m 0 min 0 min 0 W/m 3,2 km/h (1 Bft) 100,00 %
03.04.2021 00:22 6,3 C 5,6 C 3,4 C 85 % 1025,9 hPa 0,0 l/m 0 min 0 min 0 W/m 6,4 km/h (2 Bft) 100,00 %
03.04.2021 00:24 6,3 C 5,6 C 3,4 C 85 % 1025,8 hPa 0,0 l/m 0 min 0 min 0 W/m 6,4 km/h (2 Bft) 95,74 %
03.04.2021 00:26 6,3 C 5,6 C 3,4 C 85 % 1025,9 hPa 0,0 l/m 0 min 0 min 0 W/m 3,2 km/h (1 Bft) 97,87 %
03.04.2021 00:28 6,3 C 5,6 C 3,4 C 85 % 1025,9 hPa 0,0 l/m 0 min 0 min 0 W/m 3,2 km/h (1 Bft) 97,87 %
03.04.2021 00:30 6,3 C 5,6 C 3,4 C 85 % 1025,9 hPa 0,0 l/m 0 min 0 min 0 W/m 3,2 km/h (1 Bft) 95,74 %
03.04.2021 00:32 6,3 C 5,6 C 3,4 C 85 % 1025,9 hPa 0,0 l/m 0 min 0 min 0 W/m 19,3 km/h (3 Bft) 97,92 %
03.04.2021 00:34 6,2 C 5,6 C 3,4 C 85 % 1025,8 hPa 0,0 l/m 0 min 0 min 0 W/m 16,1 km/h (3 Bft) 97,83 %
03.04.2021 00:36 6,2 C 5,6 C 3,4 C 85 % 1025,8 hPa 0,0 l/m 0 min 0 min 0 W/m 9,7 km/h (2 Bft) 95,74 %
03.04.2021 00:38 6,2 C 5,6 C 3,4 C 85 % 1025,8 hPa 0,0 l/m 0 min 0 min 0 W/m 16,1 km/h (3 Bft) 97,87 %
03.04.2021 00:40 6,2 C 5,6 C 3,4 C 85 % 1025,9 hPa 0,0 l/m 0 min 0 min 0 W/m 19,3 km/h (3 Bft) 95,74 %
03.04.2021 00:42 6,2 C 5,6 C 3,4 C 85 % 1025,9 hPa 0,0 l/m 0 min 0 min 0 W/m 12,9 km/h (3 Bft) 95,74 %
03.04.2021 00:44 6,2 C 5,6 C 3,4 C 85 % 1025,9 hPa 0,0 l/m 0 min 0 min 0 W/m 12,9 km/h (3 Bft) 95,74 %
03.04.2021 00:46 6,2 C 5,6 C 3,4 C 85 % 1025,9 hPa 0,0 l/m 0 min 0 min 0 W/m 12,9 km/h (3 Bft) 95,65 %
03.04.2021 00:48 6,2 C 5,6 C 3,4 C 85 % 1025,9 hPa 0,0 l/m 0 min 0 min 0 W/m 22,5 km/h (4 Bft) 95,74 %
03.04.2021 00:50 6,3 C 5,6 C 3,4 C 86 % 1025,9 hPa 0,0 l/m 0 min 0 min 0 W/m 12,9 km/h (3 Bft) 95,74 %
03.04.2021 00:52 6,3 C 5,6 C 3,4 C 85 % 1026,0 hPa 0,0 l/m 0 min 0 min 0 W/m 22,5 km/h (4 Bft) 95,74 %
03.04.2021 00:54 6,3 C 5,6 C 3,4 C 85 % 1025,9 hPa 0,0 l/m 0 min 0 min 0 W/m 19,3 km/h (3 Bft) 93,62 %
03.04.2021 00:56 6,3 C 5,6 C 3,4 C 86 % 1025,9 hPa 0,0 l/m 0 min 0 min 0 W/m 12,9 km/h (3 Bft) 95,74 %
03.04.2021 00:58 6,3 C 5,6 C 3,4 C 86 % 1025,9 hPa 0,0 l/m 0 min 0 min 0 W/m 9,7 km/h (2 Bft) 95,65 %
03.04.2021 01:00 6,3 C 5,6 C 3,4 C 86 % 1025,9 hPa 0,0 l/m 0 min 0 min 0 W/m 19,3 km/h (3 Bft) 95,74 %
03.04.2021 01:02 6,3 C 5,6 C 3,4 C 86 % 1026,0 hPa 0,0 l/m 0 min 0 min 0 W/m 12,9 km/h (3 Bft) 95,74 %
03.04.2021 01:04 6,3 C 5,6 C 3,4 C 86 % 1025,9 hPa 0,0 l/m 0 min 0 min 0 W/m 19,3 km/h (3 Bft) 95,74 %
03.04.2021 01:06 6,3 C 5,6 C 3,4 C 86 % 1025,9 hPa 0,0 l/m 0 min 0 min 0 W/m 16,1 km/h (3 Bft) 97,87 %
03.04.2021 01:08 6,3 C 5,6 C 3,4 C 86 % 1025,8 hPa 0,0 l/m 0 min 0 min 0 W/m 29,0 km/h (5 Bft) 97,87 %
03.04.2021 01:10 6,3 C 5,6 C 3,4 C 86 % 1025,9 hPa 0,0 l/m 0 min 0 min 0 W/m 19,3 km/h (3 Bft) 97,83 %
03.04.2021 01:12 6,3 C 5,6 C 3,4 C 86 % 1025,9 hPa 0,0 l/m 0 min 0 min 0 W/m 12,9 km/h (3 Bft) 97,87 %
03.04.2021 01:14 6,2 C 5,6 C 3,4 C 86 % 1025,9 hPa 0,0 l/m 0 min 0 min 0 W/m 22,5 km/h (4 Bft) 97,87 %
03.04.2021 01:16 6,2 C 5,6 C 3,4 C 86 % 1026,0 hPa 0,0 l/m 0 min 0 min 0 W/m 25,7 km/h (4 Bft) 97,87 %
03.04.2021 01:18 6,2 C 5,6 C 3,4 C 86 % 1025,9 hPa 0,0 l/m 0 min 0 min 0 W/m 12,9 km/h (3 Bft) 97,87 %
03.04.2021 01:20 6,2 C 5,6 C 3,4 C 86 % 1025,9 hPa 0,0 l/m 0 min 0 min 0 W/m 19,3 km/h (3 Bft) 97,83 %
03.04.2021 01:22 6,1 C 5,6 C 3,4 C 86 % 1025,9 hPa 0,0 l/m 0 min 0 min 0 W/m 19,3 km/h (3 Bft) 97,87 %
03.04.2021 01:24 6,1 C 5,6 C 3,4 C 86 % 1025,9 hPa 0,0 l/m 0 min 0 min 0 W/m 19,3 km/h (3 Bft) 97,87 %
03.04.2021 01:26 6,1 C 5,0 C 3,4 C 86 % 1025,9 hPa 0,0 l/m 0 min 0 min 0 W/m 16,1 km/h (3 Bft) 97,87 %
03.04.2021 01:28 6,0 C 5,0 C 3,4 C 86 % 1025,9 hPa 0,0 l/m 0 min 0 min 0 W/m 19,3 km/h (3 Bft) 97,87 %
03.04.2021 01:30 6,0 C 5,0 C 2,8 C 86 % 1025,8 hPa 0,0 l/m 0 min 0 min 0 W/m 16,1 km/h (3 Bft) 97,87 %
03.04.2021 01:32 5,9 C 5,0 C 2,8 C 86 % 1025,9 hPa 0,0 l/m 0 min 0 min 0 W/m 25,7 km/h (4 Bft) 94,44 %
03.04.2021 01:34 5,9 C 5,0 C 2,8 C 86 % 1025,9 hPa 0,0 l/m 0 min 0 min 0 W/m 16,1 km/h (3 Bft) 97,87 %
03.04.2021 01:36 5,9 C 5,0 C 2,8 C 86 % 1025,8 hPa 0,0 l/m 0 min 0 min 0 W/m 9,7 km/h (2 Bft) 97,83 %
03.04.2021 01:38 5,9 C 5,0 C 2,8 C 86 % 1025,8 hPa 0,0 l/m 0 min 0 min 0 W/m 9,7 km/h (2 Bft) 97,87 %
03.04.2021 01:40 5,8 C 4,4 C 2,8 C 86 % 1025,8 hPa 0,0 l/m 0 min 0 min 0 W/m 16,1 km/h (3 Bft) 95,74 %
03.04.2021 01:42 5,8 C 4,4 C 2,8 C 86 % 1025,8 hPa 0,0 l/m 0 min 0 min 0 W/m 9,7 km/h (2 Bft) 97,87 %
03.04.2021 01:44 5,7 C 4,4 C 2,8 C 86 % 1025,8 hPa 0,0 l/m 0 min 0 min 0 W/m 16,1 km/h (3 Bft) 97,87 %
03.04.2021 01:46 5,7 C 4,4 C 2,8 C 86 % 1025,9 hPa 0,0 l/m 0 min 0 min 0 W/m 12,9 km/h (3 Bft) 97,87 %
03.04.2021 01:48 5,6 C 4,4 C 2,8 C 86 % 1025,9 hPa 0,0 l/m 0 min 0 min 0 W/m 12,9 km/h (3 Bft) 97,83 %
03.04.2021 01:50 5,5 C 4,4 C 2,8 C 86 % 1025,8 hPa 0,0 l/m 0 min 0 min 0 W/m 16,1 km/h (3 Bft) 97,87 %
03.04.2021 01:52 5,5 C 4,4 C 2,8 C 86 % 1025,9 hPa 0,0 l/m 0 min 0 min 0 W/m 12,9 km/h (3 Bft) 97,87 %
03.04.2021 01:54 5,5 C 4,4 C 2,8 C 86 % 1025,8 hPa 0,0 l/m 0 min 0 min 0 W/m 6,4 km/h (2 Bft) 97,87 %
03.04.2021 01:56 5,5 C 4,4 C 2,8 C 86 % 1025,8 hPa 0,0 l/m 0 min 0 min 0 W/m 9,7 km/h (2 Bft) 95,74 %
03.04.2021 01:58 5,5 C 4,4 C 2,8 C 86 % 1025,8 hPa 0,0 l/m 0 min 0 min 0 W/m 9,7 km/h (2 Bft) 97,87 %
03.04.2021 02:00 5,5 C 5,0 C 2,8 C 87 % 1025,8 hPa 0,0 l/m 0 min 0 min 0 W/m 12,9 km/h (3 Bft) 97,83 %
03.04.2021 02:02 5,5 C 5,0 C 2,8 C 87 % 1025,7 hPa 0,0 l/m 0 min 0 min 0 W/m 9,7 km/h (2 Bft) 100,00 %
03.04.2021 02:04 5,4 C 5,0 C 2,8 C 87 % 1025,7 hPa 0,0 l/m 0 min 0 min 0 W/m 9,7 km/h (2 Bft) 97,87 %
03.04.2021 02:06 5,4 C 5,0 C 2,8 C 87 % 1025,8 hPa 0,0 l/m 0 min 0 min 0 W/m 12,9 km/h (3 Bft) 93,62 %
03.04.2021 02:08 5,5 C 5,0 C 2,8 C 87 % 1025,8 hPa 0,0 l/m 0 min 0 min 0 W/m 19,3 km/h (3 Bft) 97,87 %
03.04.2021 02:10 5,5 C 5,0 C 2,8 C 87 % 1025,7 hPa 0,0 l/m 0 min 0 min 0 W/m 9,7 km/h (2 Bft) 97,87 %
03.04.2021 02:12 5,5 C 5,0 C 2,8 C 87 % 1025,7 hPa 0,0 l/m 0 min 0 min 0 W/m 19,3 km/h (3 Bft) 95,65 %
03.04.2021 02:14 5,5 C 5,0 C 2,8 C 87 % 1025,7 hPa 0,0 l/m 0 min 0 min 0 W/m 16,1 km/h (3 Bft) 95,74 %
03.04.2021 02:16 5,5 C 5,0 C 2,8 C 87 % 1025,6 hPa 0,0 l/m 0 min 0 min 0 W/m 9,7 km/h (2 Bft) 97,87 %
03.04.2021 02:18 5,5 C 5,0 C 2,8 C 87 % 1025,6 hPa 0,0 l/m 0 min 0 min 0 W/m 22,5 km/h (4 Bft) 95,74 %
03.04.2021 02:20 5,5 C 5,0 C 2,8 C 87 % 1025,7 hPa 0,0 l/m 0 min 0 min 0 W/m 19,3 km/h (3 Bft) 97,87 %
03.04.2021 02:22 5,5 C 5,0 C 2,8 C 87 % 1025,7 hPa 0,0 l/m 0 min 0 min 0 W/m 9,7 km/h (2 Bft) 97,87 %
03.04.2021 02:24 5,5 C 5,0 C 2,8 C 87 % 1025,6 hPa 0,0 l/m 0 min 0 min 0 W/m 16,1 km/h (3 Bft) 95,65 %
03.04.2021 02:26 5,5 C 5,0 C 2,8 C 87 % 1025,6 hPa 0,0 l/m 0 min 0 min 0 W/m 16,1 km/h (3 Bft) 93,62 %
03.04.2021 02:28 5,5 C 5,0 C 3,4 C 86 % 1025,6 hPa 0,0 l/m 0 min 0 min 0 W/m 9,7 km/h (2 Bft) 97,87 %
03.04.2021 02:30 5,5 C 5,0 C 3,4 C 86 % 1025,7 hPa 0,0 l/m 0 min 0 min 0 W/m 12,9 km/h (3 Bft) 97,87 %
03.04.2021 02:32 5,5 C 5,0 C 3,4 C 86 % 1025,7 hPa 0,0 l/m 0 min 0 min 0 W/m 19,3 km/h (3 Bft) 97,87 %
03.04.2021 02:34 5,5 C 5,0 C 2,8 C 86 % 1025,6 hPa 0,0 l/m 0 min 0 min 0 W/m 16,1 km/h (3 Bft) 97,87 %
03.04.2021 02:36 5,5 C 5,0 C 2,8 C 86 % 1025,7 hPa 0,0 l/m 0 min 0 min 0 W/m 29,0 km/h (5 Bft) 91,30 %
03.04.2021 02:38 5,5 C 5,0 C 3,4 C 85 % 1025,6 hPa 0,0 l/m 0 min 0 min 0 W/m 19,3 km/h (3 Bft) 97,87 %
03.04.2021 02:40 5,5 C 5,0 C 2,8 C 85 % 1025,6 hPa 0,0 l/m 0 min 0 min 0 W/m 12,9 km/h (3 Bft) 97,87 %
03.04.2021 02:42 5,5 C 5,0 C 2,8 C 85 % 1025,6 hPa 0,0 l/m 0 min 0 min 0 W/m 12,9 km/h (3 Bft) 95,74 %
03.04.2021 02:44 5,5 C 5,0 C 2,8 C 84 % 1025,6 hPa 0,0 l/m 0 min 0 min 0 W/m 12,9 km/h (3 Bft) 97,87 %
03.04.2021 02:46 5,5 C 5,0 C 2,8 C 84 % 1025,6 hPa 0,0 l/m 0 min 0 min 0 W/m 16,1 km/h (3 Bft) 97,83 %
03.04.2021 02:48 5,5 C 5,0 C 2,8 C 84 % 1025,5 hPa 0,0 l/m 0 min 0 min 0 W/m 22,5 km/h (4 Bft) 97,87 %
03.04.2021 02:50 5,5 C 5,0 C 2,8 C 83 % 1025,5 hPa 0,0 l/m 0 min 0 min 0 W/m 25,7 km/h (4 Bft) 95,74 %
03.04.2021 02:52 5,4 C 5,0 C 2,8 C 83 % 1025,5 hPa 0,0 l/m 0 min 0 min 0 W/m 19,3 km/h (3 Bft) 95,74 %
03.04.2021 02:54 5,4 C 5,0 C 2,8 C 82 % 1025,5 hPa 0,0 l/m 0 min 0 min 0 W/m 19,3 km/h (3 Bft) 91,49 %
03.04.2021 02:56 5,4 C 5,0 C 2,8 C 82 % 1025,4 hPa 0,0 l/m 0 min 0 min 0 W/m 9,7 km/h (2 Bft) 97,87 %
03.04.2021 02:58 5,4 C 4,4 C 2,8 C 82 % 1025,4 hPa 0,0 l/m 0 min 0 min 0 W/m 16,1 km/h (3 Bft) 97,83 %
03.04.2021 03:00 5,4 C 5,0 C 2,8 C 82 % 1025,3 hPa 0,0 l/m 0 min 0 min 0 W/m 16,1 km/h (3 Bft) 97,87 %
03.04.2021 03:02 5,4 C 5,0 C 2,8 C 82 % 1025,3 hPa 0,0 l/m 0 min 0 min 0 W/m 22,5 km/h (4 Bft) 97,87 %
03.04.2021 03:04 5,4 C 5,0 C 2,8 C 82 % 1025,4 hPa 0,0 l/m 0 min 0 min 0 W/m 16,1 km/h (3 Bft) 97,87 %
03.04.2021 03:06 5,4 C 5,0 C 2,8 C 82 % 1025,3 hPa 0,0 l/m 0 min 0 min 0 W/m 16,1 km/h (3 Bft) 98,11 %
03.04.2021 03:08 5,4 C 5,0 C 2,8 C 82 % 1025,3 hPa 0,0 l/m 0 min 0 min 0 W/m 9,7 km/h (2 Bft) 97,83 %
03.04.2021 03:10 5,4 C 5,0 C 2,8 C 81 % 1025,3 hPa 0,0 l/m 0 min 0 min 0 W/m 12,9 km/h (3 Bft) 97,87 %
03.04.2021 03:12 5,4 C 5,0 C 2,8 C 81 % 1025,3 hPa 0,0 l/m 0 min 0 min 0 W/m 16,1 km/h (3 Bft) 97,87 %
03.04.2021 03:14 5,4 C 5,0 C 2,8 C 81 % 1025,4 hPa 0,0 l/m 0 min 0 min 0 W/m 16,1 km/h (3 Bft) 95,74 %
03.04.2021 03:16 5,4 C 5,0 C 2,8 C 81 % 1025,5 hPa 0,0 l/m 0 min 0 min 0 W/m 19,3 km/h (3 Bft) 100,00 %
03.04.2021 03:18 5,4 C 5,0 C 2,8 C 81 % 1025,4 hPa 0,0 l/m 0 min 0 min 0 W/m 12,9 km/h (3 Bft) 93,62 %
03.04.2021 03:20 5,4 C 5,0 C 2,8 C 81 % 1025,4 hPa 0,0 l/m 0 min 0 min 0 W/m 12,9 km/h (3 Bft) 93,62 %
03.04.2021 03:22 5,4 C 5,0 C 2,8 C 81 % 1025,5 hPa 0,0 l/m 0 min 0 min 0 W/m 12,9 km/h (3 Bft) 97,83 %
03.04.2021 03:24 5,4 C 5,0 C 2,8 C 81 % 1025,4 hPa 0,0 l/m 0 min 0 min 0 W/m 22,5 km/h (4 Bft) 97,87 %
03.04.2021 03:26 5,4 C 5,0 C 2,8 C 80 % 1025,4 hPa 0,0 l/m 0 min 0 min 0 W/m 9,7 km/h (2 Bft) 97,87 %
03.04.2021 03:28 5,4 C 5,0 C 2,8 C 80 % 1025,4 hPa 0,0 l/m 0 min 0 min 0 W/m 12,9 km/h (3 Bft) 97,87 %
03.04.2021 03:30 5,4 C 5,0 C 2,8 C 80 % 1025,4 hPa 0,0 l/m 0 min 0 min 0 W/m 22,5 km/h (4 Bft) 97,87 %
03.04.2021 03:32 5,4 C 5,0 C 2,8 C 79 % 1025,4 hPa 0,0 l/m 0 min 0 min 0 W/m 16,1 km/h (3 Bft) 98,11 %
03.04.2021 03:34 5,4 C 5,0 C 2,8 C 79 % 1025,4 hPa 0,0 l/m 0 min 0 min 0 W/m 22,5 km/h (4 Bft) 97,87 %
03.04.2021 03:36 5,4 C 5,0 C 2,8 C 79 % 1025,4 hPa 0,0 l/m 0 min 0 min 0 W/m 22,5 km/h (4 Bft) 100,00 %
03.04.2021 03:38 5,4 C 5,0 C 2,8 C 79 % 1025,4 hPa 0,0 l/m 0 min 0 min 0 W/m 19,3 km/h (3 Bft) 100,00 %
03.04.2021 03:40 5,4 C 5,0 C 2,8 C 79 % 1025,4 hPa 0,0 l/m 0 min 0 min 0 W/m 22,5 km/h (4 Bft) 100,00 %
03.04.2021 03:42 5,4 C 5,0 C 2,8 C 80 % 1025,5 hPa 0,0 l/m 0 min 0 min 0 W/m 22,5 km/h (4 Bft) 100,00 %
03.04.2021 03:44 5,4 C 5,0 C 2,8 C 80 % 1025,5 hPa 0,0 l/m 0 min 0 min 0 W/m 19,3 km/h (3 Bft) 97,83 %
03.04.2021 03:46 5,4 C 5,0 C 2,8 C 80 % 1025,5 hPa 0,0 l/m 0 min 0 min 0 W/m 25,7 km/h (4 Bft) 100,00 %
03.04.2021 03:48 5,4 C 5,0 C 2,8 C 80 % 1025,5 hPa 0,0 l/m 0 min 0 min 0 W/m 22,5 km/h (4 Bft) 100,00 %
03.04.2021 03:50 5,4 C 5,0 C 2,8 C 80 % 1025,5 hPa 0,0 l/m 0 min 0 min 0 W/m 22,5 km/h (4 Bft) 55,56 %
03.04.2021 03:52 5,4 C 5,0 C 2,8 C 80 % 1025,5 hPa 0,0 l/m 0 min 0 min 0 W/m 25,7 km/h (4 Bft) 100,00 %
03.04.2021 03:54 5,4 C 5,0 C 2,8 C 80 % 1025,5 hPa 0,0 l/m 0 min 0 min 0 W/m 22,5 km/h (4 Bft) 100,00 %
03.04.2021 03:56 5,4 C 5,0 C 2,8 C 80 % 1025,5 hPa 0,0 l/m 0 min 0 min 0 W/m 29,0 km/h (5 Bft) 100,00 %
03.04.2021 03:58 5,4 C 5,0 C 2,8 C 80 % 1025,6 hPa 0,0 l/m 0 min 0 min 0 W/m 19,3 km/h (3 Bft) 100,00 %
03.04.2021 04:00 5,4 C 5,0 C 2,8 C 80 % 1025,5 hPa 0,0 l/m 0 min 0 min 0 W/m 25,7 km/h (4 Bft) 100,00 %
03.04.2021 04:02 5,4 C 5,0 C 2,8 C 80 % 1025,5 hPa 0,0 l/m 0 min 0 min 0 W/m 16,1 km/h (3 Bft) 100,00 %
03.04.2021 04:04 5,4 C 5,0 C 2,8 C 80 % 1025,5 hPa 0,0 l/m 0 min 0 min 0 W/m 12,9 km/h (3 Bft) 100,00 %
03.04.2021 04:06 5,4 C 5,0 C 2,8 C 80 % 1025,5 hPa 0,0 l/m 0 min 0 min 0 W/m 16,1 km/h (3 Bft) 100,00 %
03.04.2021 04:08 5,4 C 5,0 C 2,8 C 80 % 1025,6 hPa 0,0 l/m 0 min 0 min 0 W/m 16,1 km/h (3 Bft) 100,00 %
03.04.2021 04:10 5,3 C 5,0 C 2,8 C 80 % 1025,5 hPa 0,0 l/m 0 min 0 min 0 W/m 16,1 km/h (3 Bft) 100,00 %
03.04.2021 04:12 5,3 C 5,0 C 2,8 C 80 % 1025,5 hPa 0,0 l/m 0 min 0 min 0 W/m 16,1 km/h (3 Bft) 100,00 %
03.04.2021 04:14 5,3 C 5,0 C 2,8 C 80 % 1025,5 hPa 0,0 l/m 0 min 0 min 0 W/m 12,9 km/h (3 Bft) 100,00 %
03.04.2021 04:16 5,3 C 5,0 C 2,8 C 80 % 1025,6 hPa 0,0 l/m 0 min 0 min 0 W/m 16,1 km/h (3 Bft) 100,00 %
03.04.2021 04:18 5,3 C 5,0 C 2,8 C 80 % 1025,6 hPa 0,0 l/m 0 min 0 min 0 W/m 19,3 km/h (3 Bft) 100,00 %
03.04.2021 04:20 5,3 C 5,0 C 2,8 C 79 % 1025,7 hPa 0,0 l/m 0 min 0 min 0 W/m 16,1 km/h (3 Bft) 100,00 %
03.04.2021 04:22 5,3 C 5,0 C 2,8 C 80 % 1025,7 hPa 0,0 l/m 0 min 0 min 0 W/m 16,1 km/h (3 Bft) 100,00 %
03.04.2021 04:24 5,3 C 5,0 C 2,8 C 79 % 1025,6 hPa 0,0 l/m 0 min 0 min 0 W/m 16,1 km/h (3 Bft) 97,87 %
03.04.2021 04:26 5,3 C 5,0 C 2,8 C 79 % 1025,6 hPa 0,0 l/m 0 min 0 min 0 W/m 6,4 km/h (2 Bft) 100,00 %
03.04.2021 04:28 5,3 C 5,0 C 2,8 C 79 % 1025,6 hPa 0,0 l/m 0 min 0 min 0 W/m 16,1 km/h (3 Bft) 100,00 %
03.04.2021 04:30 5,3 C 5,0 C 2,8 C 79 % 1025,7 hPa 0,0 l/m 0 min 0 min 0 W/m 19,3 km/h (3 Bft) 100,00 %
03.04.2021 04:32 5,3 C 5,0 C 2,8 C 79 % 1025,7 hPa 0,0 l/m 0 min 0 min 0 W/m 25,7 km/h (4 Bft) 100,00 %
03.04.2021 04:34 5,3 C 5,0 C 2,8 C 79 % 1025,6 hPa 0,0 l/m 0 min 0 min 0 W/m 22,5 km/h (4 Bft) 100,00 %
03.04.2021 04:36 5,3 C 5,0 C 2,8 C 79 % 1025,6 hPa 0,0 l/m 0 min 0 min 0 W/m 29,0 km/h (5 Bft) 97,87 %
03.04.2021 04:38 5,3 C 5,0 C 2,8 C 79 % 1025,7 hPa 0,0 l/m 0 min 0 min 0 W/m 16,1 km/h (3 Bft) 100,00 %
03.04.2021 04:40 5,3 C 5,0 C 2,8 C 79 % 1025,7 hPa 0,0 l/m 0 min 0 min 0 W/m 22,5 km/h (4 Bft) 100,00 %
03.04.2021 04:42 5,3 C 5,0 C 2,8 C 79 % 1025,7 hPa 0,0 l/m 0 min 0 min 0 W/m 19,3 km/h (3 Bft) 100,00 %
03.04.2021 04:44 5,3 C 5,0 C 2,8 C 79 % 1025,6 hPa 0,0 l/m 0 min 0 min 0 W/m 16,1 km/h (3 Bft) 100,00 %
03.04.2021 04:46 5,3 C 5,0 C 2,8 C 79 % 1025,7 hPa 0,0 l/m 0 min 0 min 0 W/m 19,3 km/h (3 Bft) 100,00 %
03.04.2021 04:48 5,3 C 5,0 C 2,8 C 79 % 1025,7 hPa 0,0 l/m 0 min 0 min 0 W/m 16,1 km/h (3 Bft) 100,00 %
03.04.2021 04:50 5,3 C 4,4 C 2,8 C 79 % 1025,7 hPa 0,0 l/m 0 min 0 min 0 W/m 19,3 km/h (3 Bft) 100,00 %
03.04.2021 04:52 5,3 C 4,4 C 2,8 C 79 % 1025,7 hPa 0,0 l/m 0 min 0 min 0 W/m 19,3 km/h (3 Bft) 100,00 %
03.04.2021 04:54 5,3 C 4,4 C 2,8 C 79 % 1025,7 hPa 0,0 l/m 0 min 0 min 0 W/m 16,1 km/h (3 Bft) 100,00 %
03.04.2021 04:56 5,3 C 4,4 C 2,8 C 79 % 1025,7 hPa 0,0 l/m 0 min 0 min 0 W/m 9,7 km/h (2 Bft) 100,00 %
03.04.2021 04:58 5,2 C 4,4 C 2,8 C 79 % 1025,7 hPa 0,0 l/m 0 min 0 min 0 W/m 16,1 km/h (3 Bft) 97,87 %
03.04.2021 05:00 5,2 C 4,4 C 2,8 C 79 % 1025,7 hPa 0,0 l/m 0 min 0 min 0 W/m 19,3 km/h (3 Bft) 100,00 %
03.04.2021 05:02 5,2 C 4,4 C 2,8 C 80 % 1025,7 hPa 0,0 l/m 0 min 0 min 0 W/m 9,7 km/h (2 Bft) 100,00 %
03.04.2021 05:04 5,2 C 4,4 C 2,8 C 80 % 1025,6 hPa 0,0 l/m 0 min 0 min 0 W/m 6,4 km/h (2 Bft) 100,00 %
03.04.2021 05:06 5,2 C 4,4 C 2,3 C 80 % 1025,6 hPa 0,0 l/m 0 min 0 min 0 W/m 9,7 km/h (2 Bft) 100,00 %
03.04.2021 05:08 5,2 C 4,4 C 2,3 C 80 % 1025,7 hPa 0,0 l/m 0 min 0 min 0 W/m 9,7 km/h (2 Bft) 97,83 %
03.04.2021 05:10 5,2 C 4,4 C 2,3 C 80 % 1025,7 hPa 0,0 l/m 0 min 0 min 0 W/m 16,1 km/h (3 Bft) 97,87 %
03.04.2021 05:12 5,2 C 4,4 C 2,3 C 80 % 1025,6 hPa 0,0 l/m 0 min 0 min 0 W/m 19,3 km/h (3 Bft) 93,62 %
03.04.2021 05:14 5,2 C 4,4 C 2,3 C 80 % 1025,6 hPa 0,0 l/m 0 min 0 min 0 W/m 12,9 km/h (3 Bft) 95,74 %
03.04.2021 05:16 5,1 C 4,4 C 2,3 C 80 % 1025,7 hPa 0,0 l/m 0 min 0 min 0 W/m 6,4 km/h (2 Bft) 95,74 %
03.04.2021 05:18 5,1 C 4,4 C 2,3 C 81 % 1025,7 hPa 0,0 l/m 0 min 0 min 0 W/m 16,1 km/h (3 Bft) 95,74 %
03.04.2021 05:20 5,1 C 4,4 C 2,3 C 81 % 1025,6 hPa 0,0 l/m 0 min 0 min 0 W/m 12,9 km/h (3 Bft) 97,83 %
03.04.2021 05:22 5,1 C 4,4 C 2,3 C 81 % 1025,7 hPa 0,0 l/m 0 min 0 min 0 W/m 16,1 km/h (3 Bft) 97,87 %
03.04.2021 05:24 5,1 C 4,4 C 2,3 C 81 % 1025,7 hPa 0,0 l/m 0 min 0 min 0 W/m 12,9 km/h (3 Bft) 95,74 %
03.04.2021 05:26 5,1 C 4,4 C 2,3 C 81 % 1025,7 hPa 0,0 l/m 0 min 0 min 0 W/m 16,1 km/h (3 Bft) 93,62 %
03.04.2021 05:28 5,1 C 4,4 C 2,3 C 81 % 1025,7 hPa 0,0 l/m 0 min 0 min 0 W/m 12,9 km/h (3 Bft) 93,62 %
03.04.2021 05:30 5,1 C 4,4 C 2,3 C 81 % 1025,7 hPa 0,0 l/m 0 min 0 min 0 W/m 9,7 km/h (2 Bft) 91,49 %
03.04.2021 05:32 5,1 C 4,4 C 2,3 C 81 % 1025,7 hPa 0,0 l/m 0 min 0 min 0 W/m 12,9 km/h (3 Bft) 93,48 %
03.04.2021 05:34 5,1 C 4,4 C 2,3 C 81 % 1025,7 hPa 0,0 l/m 0 min 0 min 0 W/m 9,7 km/h (2 Bft) 93,62 %
03.04.2021 05:36 5,1 C 4,4 C 2,3 C 81 % 1025,6 hPa 0,0 l/m 0 min 0 min 0 W/m 6,4 km/h (2 Bft) 93,62 %
03.04.2021 05:38 5,1 C 4,4 C 2,3 C 81 % 1025,6 hPa 0,0 l/m 0 min 0 min 0 W/m 12,9 km/h (3 Bft) 93,62 %
03.04.2021 05:40 5,1 C 4,4 C 2,3 C 82 % 1025,6 hPa 0,0 l/m 0 min 0 min 0 W/m 9,7 km/h (2 Bft) 93,62 %
03.04.2021 05:42 5,1 C 4,4 C 2,3 C 82 % 1025,6 hPa 0,0 l/m 0 min 0 min 0 W/m 6,4 km/h (2 Bft) 93,62 %
03.04.2021 05:44 5,1 C 4,4 C 2,3 C 82 % 1025,6 hPa 0,0 l/m 0 min 0 min 0 W/m 0,0 km/h (0 Bft) 93,48 %
03.04.2021 05:46 5,1 C 4,4 C 2,3 C 82 % 1025,6 hPa 0,0 l/m 0 min 0 min 0 W/m 9,7 km/h (2 Bft) 95,74 %
03.04.2021 05:48 5,0 C 4,4 C 2,3 C 82 % 1025,6 hPa 0,0 l/m 0 min 0 min 0 W/m 9,7 km/h (2 Bft) 91,49 %
03.04.2021 05:50 5,0 C 4,4 C 2,3 C 82 % 1025,7 hPa 0,0 l/m 0 min 0 min 0 W/m 9,7 km/h (2 Bft) 93,62 %
03.04.2021 05:52 5,0 C 4,4 C 2,3 C 82 % 1025,7 hPa 0,0 l/m 0 min 0 min 0 W/m 9,7 km/h (2 Bft) 93,62 %
03.04.2021 05:54 5,0 C 4,4 C 2,3 C 82 % 1025,7 hPa 0,0 l/m 0 min 0 min 0 W/m 16,1 km/h (3 Bft) 91,49 %
03.04.2021 05:56 5,0 C 4,4 C 2,3 C 82 % 1025,8 hPa 0,0 l/m 0 min 0 min 0 W/m 12,9 km/h (3 Bft) 93,48 %
03.04.2021 05:58 5,0 C 4,4 C 2,3 C 82 % 1025,8 hPa 0,0 l/m 0 min 0 min 0 W/m 9,7 km/h (2 Bft) 91,49 %
03.04.2021 06:00 5,0 C 4,4 C 2,3 C 82 % 1025,7 hPa 0,0 l/m 0 min 0 min 0 W/m 16,1 km/h (3 Bft) 95,74 %
03.04.2021 06:02 5,0 C 4,4 C 2,3 C 82 % 1025,7 hPa 0,0 l/m 0 min 0 min 0 W/m 6,4 km/h (2 Bft) 93,62 %
03.04.2021 06:04 5,0 C 4,4 C 2,3 C 82 % 1025,7 hPa 0,0 l/m 0 min 0 min 0 W/m 12,9 km/h (3 Bft) 91,49 %
03.04.2021 06:08 5,0 C 4,4 C 2,3 C 82 % 1025,7 hPa 0,0 l/m 0 min 0 min 0 W/m 16,1 km/h (3 Bft) 97,85 %
03.04.2021 06:10 5,0 C 4,4 C 2,3 C 82 % 1025,7 hPa 0,0 l/m 0 min 0 min 0 W/m 9,7 km/h (2 Bft) 97,87 %
03.04.2021 06:12 5,0 C 4,4 C 2,3 C 82 % 1025,8 hPa 0,0 l/m 0 min 0 min 0 W/m 9,7 km/h (2 Bft) 97,87 %
03.04.2021 06:14 5,0 C 4,4 C 2,3 C 82 % 1025,8 hPa 0,0 l/m 0 min 0 min 0 W/m 6,4 km/h (2 Bft) 97,87 %
03.04.2021 06:16 5,0 C 4,4 C 2,3 C 82 % 1025,7 hPa 0,0 l/m 0 min 0 min 0 W/m 6,4 km/h (2 Bft) 97,87 %
03.04.2021 06:18 5,0 C 4,4 C 2,3 C 82 % 1025,7 hPa 0,0 l/m 0 min 0 min 0 W/m 6,4 km/h (2 Bft) 95,74 %
03.04.2021 06:20 5,0 C 4,4 C 2,3 C 82 % 1025,7 hPa 0,0 l/m 0 min 0 min 0 W/m 3,2 km/h (1 Bft) 97,83 %
03.04.2021 06:22 5,0 C 4,4 C 2,3 C 83 % 1025,8 hPa 0,0 l/m 0 min 0 min 0 W/m 6,4 km/h (2 Bft) 95,74 %
03.04.2021 06:24 5,0 C 4,4 C 2,3 C 83 % 1025,8 hPa 0,0 l/m 0 min 0 min 0 W/m 6,4 km/h (2 Bft) 97,87 %
03.04.2021 06:26 5,0 C 4,4 C 2,3 C 83 % 1025,9 hPa 0,0 l/m 0 min 0 min 0 W/m 6,4 km/h (2 Bft) 97,87 %
03.04.2021 06:28 5,0 C 4,4 C 2,3 C 83 % 1025,9 hPa 0,0 l/m 0 min 0 min 0 W/m 6,4 km/h (2 Bft) 97,87 %
03.04.2021 06:30 5,0 C 4,4 C 2,3 C 83 % 1025,9 hPa 0,0 l/m 0 min 0 min 0 W/m 12,9 km/h (3 Bft) 97,83 %
03.04.2021 06:32 5,0 C 4,4 C 2,3 C 83 % 1025,9 hPa 0,0 l/m 0 min 0 min 0 W/m 9,7 km/h (2 Bft) 97,87 %
03.04.2021 06:34 4,9 C 4,4 C 2,3 C 83 % 1026,0 hPa 0,0 l/m 0 min 0 min 0 W/m 9,7 km/h (2 Bft) 97,87 %
03.04.2021 06:36 5,0 C 4,4 C 2,3 C 83 % 1026,0 hPa 0,0 l/m 0 min 0 min 0 W/m 9,7 km/h (2 Bft) 97,87 %
03.04.2021 06:38 4,9 C 4,4 C 2,3 C 83 % 1026,0 hPa 0,0 l/m 0 min 0 min 0 W/m 9,7 km/h (2 Bft) 97,87 %
03.04.2021 06:40 4,9 C 4,4 C 2,3 C 83 % 1026,1 hPa 0,0 l/m 0 min 0 min 0 W/m 6,4 km/h (2 Bft) 97,87 %
03.04.2021 06:42 4,9 C 4,4 C 2,3 C 83 % 1026,1 hPa 0,0 l/m 0 min 0 min 0 W/m 9,7 km/h (2 Bft) 97,83 %
03.04.2021 06:44 4,9 C 4,4 C 2,3 C 83 % 1026,2 hPa 0,0 l/m 0 min 0 min 0 W/m 9,7 km/h (2 Bft) 97,87 %
03.04.2021 06:46 4,9 C 4,4 C 2,3 C 83 % 1026,2 hPa 0,0 l/m 0 min 0 min 0 W/m 16,1 km/h (3 Bft) 97,87 %
03.04.2021 06:48 4,9 C 4,4 C 2,3 C 83 % 1026,3 hPa 0,0 l/m 0 min 0 min 0 W/m 12,9 km/h (3 Bft) 97,87 %
03.04.2021 06:50 4,9 C 4,4 C 2,3 C 83 % 1026,3 hPa 0,0 l/m 0 min 0 min 0 W/m 6,4 km/h (2 Bft) 97,87 %
03.04.2021 06:52 4,9 C 4,4 C 2,3 C 83 % 1026,2 hPa 0,0 l/m 0 min 0 min 0 W/m 3,2 km/h (1 Bft) 100,00 %
03.04.2021 06:54 4,9 C 4,4 C 2,3 C 83 % 1026,2 hPa 0,0 l/m 0 min 0 min 0 W/m 6,4 km/h (2 Bft) 100,00 %
03.04.2021 06:56 5,0 C 4,4 C 2,3 C 83 % 1026,3 hPa 0,0 l/m 0 min 0 min 0 W/m 9,7 km/h (2 Bft) 100,00 %
03.04.2021 06:58 5,0 C 4,4 C 2,3 C 83 % 1026,3 hPa 0,0 l/m 0 min 0 min 0 W/m 9,7 km/h (2 Bft) 100,00 %
03.04.2021 07:00 4,9 C 4,4 C 2,3 C 83 % 1026,3 hPa 0,0 l/m 0 min 0 min 0 W/m 9,7 km/h (2 Bft) 100,00 %
03.04.2021 07:02 4,9 C 4,4 C 2,3 C 83 % 1026,3 hPa 0,0 l/m 0 min 0 min 0 W/m 22,5 km/h (4 Bft) 100,00 %
03.04.2021 07:04 4,9 C 4,4 C 2,3 C 83 % 1026,3 hPa 0,0 l/m 0 min 0 min 0 W/m 6,4 km/h (2 Bft) 100,00 %
03.04.2021 07:06 4,9 C 4,4 C 2,3 C 84 % 1026,3 hPa 0,0 l/m 0 min 0 min 0 W/m 9,7 km/h (2 Bft) 100,00 %
03.04.2021 07:08 4,9 C 4,4 C 2,3 C 84 % 1026,3 hPa 0,0 l/m 0 min 0 min 0 W/m 6,4 km/h (2 Bft) 100,00 %
03.04.2021 07:10 4,9 C 4,4 C 2,3 C 84 % 1026,3 hPa 0,0 l/m 0 min 0 min 0 W/m 6,4 km/h (2 Bft) 100,00 %
03.04.2021 07:12 4,9 C 4,4 C 2,3 C 84 % 1026,4 hPa 0,0 l/m 0 min 0 min 0 W/m 6,4 km/h (2 Bft) 100,00 %
03.04.2021 07:14 4,9 C 4,4 C 2,3 C 84 % 1026,4 hPa 0,0 l/m 0 min 0 min 0 W/m 9,7 km/h (2 Bft) 100,00 %
03.04.2021 07:16 4,9 C 4,4 C 2,3 C 84 % 1026,4 hPa 0,0 l/m 0 min 0 min 0 W/m 6,4 km/h (2 Bft) 100,00 %
03.04.2021 07:18 4,9 C 4,4 C 2,3 C 84 % 1026,4 hPa 0,0 l/m 0 min 0 min 1 W/m 9,7 km/h (2 Bft) 95,74 %
03.04.2021 07:20 4,9 C 4,4 C 2,3 C 84 % 1026,5 hPa 0,0 l/m 0 min 0 min 5 W/m 9,7 km/h (2 Bft) 100,00 %
03.04.2021 07:22 4,9 C 4,4 C 2,3 C 85 % 1026,5 hPa 0,0 l/m 0 min 0 min 6 W/m 6,4 km/h (2 Bft) 100,00 %
03.04.2021 07:24 4,9 C 4,4 C 2,3 C 85 % 1026,5 hPa 0,0 l/m 0 min 0 min 7 W/m 9,7 km/h (2 Bft) 100,00 %
03.04.2021 07:26 5,0 C 4,4 C 2,3 C 85 % 1026,5 hPa 0,0 l/m 0 min 0 min 11 W/m 6,4 km/h (2 Bft) 100,00 %
03.04.2021 07:28 5,0 C 4,4 C 2,3 C 85 % 1026,5 hPa 0,0 l/m 0 min 0 min 12 W/m 3,2 km/h (1 Bft) 100,00 %
03.04.2021 07:30 5,0 C 4,4 C 2,8 C 85 % 1026,5 hPa 0,0 l/m 0 min 0 min 15 W/m 9,7 km/h (2 Bft) 100,00 %
03.04.2021 07:32 5,0 C 4,4 C 2,8 C 85 % 1026,5 hPa 0,0 l/m 0 min 0 min 19 W/m 9,7 km/h (2 Bft) 100,00 %
03.04.2021 07:34 5,0 C 4,4 C 2,8 C 85 % 1026,6 hPa 0,0 l/m 0 min 0 min 22 W/m 6,4 km/h (2 Bft) 100,00 %
03.04.2021 07:36 5,0 C 4,4 C 2,8 C 85 % 1026,6 hPa 0,0 l/m 0 min 0 min 24 W/m 6,4 km/h (2 Bft) 100,00 %
03.04.2021 07:38 5,0 C 4,4 C 2,8 C 85 % 1026,5 hPa 0,0 l/m 0 min 0 min 25 W/m 6,4 km/h (2 Bft) 97,87 %
03.04.2021 07:40 5,0 C 4,4 C 2,8 C 85 % 1026,5 hPa 0,0 l/m 0 min 0 min 23 W/m 6,4 km/h (2 Bft) 100,00 %
03.04.2021 07:42 5,0 C 4,4 C 2,3 C 84 % 1026,6 hPa 0,0 l/m 0 min 0 min 19 W/m 3,2 km/h (1 Bft) 97,87 %
03.04.2021 07:44 5,0 C 4,4 C 2,3 C 85 % 1026,6 hPa 0,0 l/m 0 min 0 min 16 W/m 9,7 km/h (2 Bft) 97,87 %
03.04.2021 07:46 5,0 C 4,4 C 2,3 C 84 % 1026,7 hPa 0,0 l/m 0 min 0 min 14 W/m 16,1 km/h (3 Bft) 100,00 %
03.04.2021 07:48 5,0 C 4,4 C 2,3 C 85 % 1026,7 hPa 0,0 l/m 0 min 0 min 15 W/m 6,4 km/h (2 Bft) 100,00 %
03.04.2021 07:50 5,0 C 4,4 C 2,3 C 85 % 1026,6 hPa 0,0 l/m 0 min 0 min 18 W/m 12,9 km/h (3 Bft) 100,00 %
03.04.2021 07:52 5,0 C 4,4 C 2,3 C 85 % 1026,7 hPa 0,0 l/m 0 min 0 min 21 W/m 6,4 km/h (2 Bft) 97,83 %
03.04.2021 07:54 5,0 C 4,4 C 2,3 C 85 % 1026,8 hPa 0,0 l/m 0 min 0 min 26 W/m 16,1 km/h (3 Bft) 97,87 %
03.04.2021 07:56 5,0 C 4,4 C 2,3 C 85 % 1026,8 hPa 0,0 l/m 0 min 0 min 30 W/m 6,4 km/h (2 Bft) 97,87 %
03.04.2021 07:58 5,0 C 4,4 C 2,8 C 85 % 1026,9 hPa 0,0 l/m 0 min 0 min 31 W/m 6,4 km/h (2 Bft) 97,87 %
03.04.2021 08:00 5,0 C 4,4 C 2,8 C 85 % 1026,9 hPa 0,0 l/m 0 min 0 min 34 W/m 12,9 km/h (3 Bft) 97,87 %
03.04.2021 08:02 5,0 C 5,0 C 2,8 C 85 % 1026,9 hPa 0,0 l/m 0 min 0 min 35 W/m 12,9 km/h (3 Bft) 97,83 %
03.04.2021 08:04 5,0 C 5,0 C 2,8 C 85 % 1027,0 hPa 0,0 l/m 0 min 0 min 39 W/m 9,7 km/h (2 Bft) 97,87 %
03.04.2021 08:06 5,0 C 5,0 C 2,8 C 85 % 1027,0 hPa 0,0 l/m 0 min 0 min 43 W/m 9,7 km/h (2 Bft) 97,87 %
03.04.2021 08:08 5,0 C 5,0 C 2,8 C 85 % 1027,0 hPa 0,0 l/m 0 min 0 min 47 W/m 12,9 km/h (3 Bft) 97,87 %
03.04.2021 08:10 5,1 C 5,0 C 2,8 C 85 % 1027,0 hPa 0,0 l/m 0 min 0 min 51 W/m 9,7 km/h (2 Bft) 97,87 %
03.04.2021 08:12 5,1 C 5,0 C 2,8 C 85 % 1027,0 hPa 0,0 l/m 0 min 0 min 53 W/m 12,9 km/h (3 Bft) 95,74 %
03.04.2021 08:14 5,1 C 5,0 C 2,8 C 85 % 1027,1 hPa 0,0 l/m 0 min 0 min 57 W/m 12,9 km/h (3 Bft) 97,83 %
03.04.2021 08:16 5,1 C 5,0 C 2,8 C 85 % 1027,1 hPa 0,0 l/m 0 min 0 min 60 W/m 12,9 km/h (3 Bft) 97,87 %
03.04.2021 08:18 5,1 C 5,0 C 2,8 C 85 % 1027,1 hPa 0,0 l/m 0 min 0 min 58 W/m 12,9 km/h (3 Bft) 95,74 %
03.04.2021 08:20 5,1 C 5,0 C 2,8 C 85 % 1027,1 hPa 0,0 l/m 0 min 0 min 61 W/m 9,7 km/h (2 Bft) 93,62 %
03.04.2021 08:22 5,1 C 5,0 C 2,8 C 85 % 1027,1 hPa 0,0 l/m 0 min 0 min 68 W/m 16,1 km/h (3 Bft) 95,74 %
03.04.2021 08:24 5,1 C 5,0 C 2,8 C 85 % 1027,1 hPa 0,0 l/m 0 min 0 min 68 W/m 9,7 km/h (2 Bft) 95,74 %
03.04.2021 08:26 5,1 C 5,0 C 2,8 C 85 % 1027,2 hPa 0,0 l/m 0 min 0 min 63 W/m 9,7 km/h (2 Bft) 93,48 %
03.04.2021 08:28 5,1 C 5,0 C 2,8 C 85 % 1027,2 hPa 0,0 l/m 0 min 0 min 57 W/m 6,4 km/h (2 Bft) 95,74 %
03.04.2021 08:30 5,2 C 5,0 C 2,8 C 85 % 1027,2 hPa 0,0 l/m 0 min 0 min 54 W/m 16,1 km/h (3 Bft) 95,74 %
03.04.2021 08:32 5,2 C 5,0 C 2,8 C 85 % 1027,3 hPa 0,0 l/m 0 min 0 min 54 W/m 9,7 km/h (2 Bft) 95,74 %
03.04.2021 08:34 5,2 C 5,0 C 2,8 C 85 % 1027,3 hPa 0,0 l/m 0 min 0 min 54 W/m 19,3 km/h (3 Bft) 95,74 %
03.04.2021 08:36 5,2 C 5,0 C 2,8 C 85 % 1027,3 hPa 0,0 l/m 0 min 0 min 54 W/m 19,3 km/h (3 Bft) 91,49 %
03.04.2021 08:38 5,2 C 5,0 C 2,8 C 85 % 1027,3 hPa 0,0 l/m 0 min 0 min 56 W/m 12,9 km/h (3 Bft) 95,74 %
03.04.2021 08:40 5,3 C 5,0 C 2,8 C 85 % 1027,4 hPa 0,0 l/m 0 min 0 min 56 W/m 16,1 km/h (3 Bft) 97,87 %
03.04.2021 08:42 5,3 C 5,0 C 2,8 C 85 % 1027,3 hPa 0,0 l/m 0 min 0 min 58 W/m 16,1 km/h (3 Bft) 97,87 %
03.04.2021 08:44 5,3 C 5,0 C 2,8 C 85 % 1027,3 hPa 0,0 l/m 0 min 0 min 60 W/m 16,1 km/h (3 Bft) 97,87 %
03.04.2021 08:46 5,3 C 5,0 C 2,8 C 85 % 1027,3 hPa 0,0 l/m 0 min 0 min 62 W/m 16,1 km/h (3 Bft) 97,87 %
03.04.2021 08:48 5,3 C 5,6 C 2,8 C 85 % 1027,4 hPa 0,0 l/m 0 min 0 min 65 W/m 12,9 km/h (3 Bft) 97,87 %
03.04.2021 08:50 5,3 C 5,6 C 2,8 C 85 % 1027,4 hPa 0,0 l/m 0 min 0 min 67 W/m 22,5 km/h (4 Bft) 97,83 %
03.04.2021 08:52 5,4 C 5,6 C 2,8 C 85 % 1027,4 hPa 0,0 l/m 0 min 0 min 64 W/m 12,9 km/h (3 Bft) 95,74 %
03.04.2021 08:54 5,4 C 5,6 C 2,8 C 85 % 1027,4 hPa 0,0 l/m 0 min 0 min 63 W/m 12,9 km/h (3 Bft) 95,74 %
03.04.2021 08:56 5,4 C 5,6 C 2,8 C 85 % 1027,4 hPa 0,0 l/m 0 min 0 min 68 W/m 16,1 km/h (3 Bft) 97,87 %
03.04.2021 08:58 5,4 C 5,6 C 2,8 C 85 % 1027,5 hPa 0,0 l/m 0 min 0 min 68 W/m 16,1 km/h (3 Bft) 93,62 %
03.04.2021 09:00 5,4 C 5,6 C 2,8 C 85 % 1027,5 hPa 0,0 l/m 0 min 0 min 69 W/m 9,7 km/h (2 Bft) 97,87 %
03.04.2021 09:02 5,4 C 5,6 C 3,4 C 85 % 1027,5 hPa 0,0 l/m 0 min 0 min 76 W/m 6,4 km/h (2 Bft) 97,83 %
03.04.2021 09:04 5,4 C 5,6 C 3,4 C 85 % 1027,6 hPa 0,0 l/m 0 min 0 min 86 W/m 9,7 km/h (2 Bft) 97,87 %
03.04.2021 09:06 5,4 C 5,6 C 3,4 C 85 % 1027,6 hPa 0,0 l/m 0 min 0 min 93 W/m 12,9 km/h (3 Bft) 97,87 %
03.04.2021 09:08 5,4 C 5,6 C 3,4 C 85 % 1027,6 hPa 0,0 l/m 0 min 0 min 100 W/m 9,7 km/h (2 Bft) 95,74 %
03.04.2021 09:10 5,5 C 5,6 C 3,4 C 85 % 1027,6 hPa 0,0 l/m 0 min 0 min 95 W/m 12,9 km/h (3 Bft) 97,87 %
03.04.2021 09:12 5,5 C 6,1 C 3,4 C 85 % 1027,6 hPa 0,0 l/m 0 min 0 min 102 W/m 12,9 km/h (3 Bft) 100,00 %
03.04.2021 09:14 5,5 C 6,1 C 3,4 C 85 % 1027,6 hPa 0,0 l/m 0 min 0 min 116 W/m 12,9 km/h (3 Bft) 100,00 %
03.04.2021 09:16 5,5 C 6,1 C 3,4 C 85 % 1027,6 hPa 0,0 l/m 0 min 0 min 148 W/m 16,1 km/h (3 Bft) 98,11 %
03.04.2021 09:18 5,5 C 6,1 C 3,9 C 85 % 1027,6 hPa 0,0 l/m 0 min 0 min 166 W/m 16,1 km/h (3 Bft) 98,00 %
03.04.2021 09:20 5,6 C 6,7 C 3,9 C 85 % 1027,6 hPa 0,0 l/m 0 min 0 min 162 W/m 9,7 km/h (2 Bft) 100,00 %
03.04.2021 09:22 5,7 C 6,7 C 3,9 C 84 % 1027,7 hPa 0,0 l/m 0 min 0 min 145 W/m 12,9 km/h (3 Bft) 100,00 %
03.04.2021 09:24 5,8 C 6,7 C 3,9 C 84 % 1027,7 hPa 0,0 l/m 2 min 0 min 187 W/m 12,9 km/h (3 Bft) 100,00 %
03.04.2021 09:26 5,8 C 7,2 C 3,9 C 83 % 1027,7 hPa 0,0 l/m 2 min 0 min 221 W/m 16,1 km/h (3 Bft) 100,00 %
03.04.2021 09:28 5,9 C 7,8 C 3,9 C 83 % 1027,7 hPa 0,0 l/m 2 min 0 min 208 W/m 16,1 km/h (3 Bft) 95,74 %
03.04.2021 09:30 5,9 C 7,8 C 3,9 C 83 % 1027,7 hPa 0,0 l/m 2 min 0 min 203 W/m 12,9 km/h (3 Bft) 100,00 %
03.04.2021 09:32 6,0 C 8,9 C 3,9 C 83 % 1027,8 hPa 0,0 l/m 2 min 0 min 257 W/m 6,4 km/h (2 Bft) 97,87 %
03.04.2021 09:34 6,0 C 10,0 C 3,9 C 83 % 1027,8 hPa 0,0 l/m 2 min 0 min 313 W/m 16,1 km/h (3 Bft) 100,00 %
03.04.2021 09:36 6,1 C 10,6 C 3,9 C 83 % 1027,8 hPa 0,0 l/m 2 min 0 min 338 W/m 16,1 km/h (3 Bft) 100,00 %
03.04.2021 09:38 6,2 C 10,6 C 3,9 C 82 % 1027,7 hPa 0,0 l/m 2 min 0 min 336 W/m 12,9 km/h (3 Bft) 97,87 %
03.04.2021 09:40 6,3 C 10,6 C 4,5 C 82 % 1027,7 hPa 0,0 l/m 2 min 0 min 322 W/m 9,7 km/h (2 Bft) 100,00 %
03.04.2021 09:42 6,4 C 9,4 C 4,5 C 81 % 1027,7 hPa 0,0 l/m 0 min 0 min 154 W/m 16,1 km/h (3 Bft) 97,87 %
03.04.2021 09:44 6,4 C 8,3 C 4,5 C 81 % 1027,7 hPa 0,0 l/m 0 min 0 min 142 W/m 16,1 km/h (3 Bft) 100,00 %
03.04.2021 09:46 6,4 C 9,4 C 5,6 C 81 % 1027,8 hPa 0,0 l/m 2 min 0 min 391 W/m 9,7 km/h (2 Bft) 100,00 %
03.04.2021 09:48 6,5 C 10,0 C 6,7 C 81 % 1027,8 hPa 0,0 l/m 2 min 0 min 461 W/m 12,9 km/h (3 Bft) 100,00 %
03.04.2021 09:50 6,7 C 10,6 C 6,7 C 80 % 1027,8 hPa 0,0 l/m 2 min 0 min 454 W/m 12,9 km/h (3 Bft) 100,00 %
03.04.2021 09:52 7,0 C 11,7 C 6,7 C 80 % 1027,8 hPa 0,0 l/m 2 min 0 min 497 W/m 9,7 km/h (2 Bft) 97,87 %
03.04.2021 09:54 7,1 C 11,7 C 7,3 C 79 % 1027,8 hPa 0,0 l/m 2 min 0 min 542 W/m 16,1 km/h (3 Bft) 100,00 %
03.04.2021 09:56 7,4 C 11,7 C 8,4 C 79 % 1027,8 hPa 0,0 l/m 2 min 0 min 538 W/m 25,7 km/h (4 Bft) 100,00 %
03.04.2021 09:58 7,5 C 12,2 C 8,9 C 78 % 1027,8 hPa 0,0 l/m 2 min 0 min 513 W/m 12,9 km/h (3 Bft) 100,00 %
03.04.2021 10:00 7,6 C 12,2 C 8,9 C 77 % 1027,8 hPa 0,0 l/m 2 min 0 min 510 W/m 19,3 km/h (3 Bft) 97,83 %
03.04.2021 10:02 7,8 C 12,8 C 8,4 C 76 % 1027,9 hPa 0,0 l/m 2 min 0 min 481 W/m 16,1 km/h (3 Bft) 95,74 %
03.04.2021 10:04 7,9 C 12,2 C 8,4 C 75 % 1027,9 hPa 0,0 l/m 2 min 0 min 436 W/m 12,9 km/h (3 Bft) 97,87 %
03.04.2021 10:06 7,9 C 11,7 C 7,3 C 74 % 1028,0 hPa 0,0 l/m 0 min 0 min 166 W/m 9,7 km/h (2 Bft) 97,87 %
03.04.2021 10:08 7,9 C 10,6 C 6,7 C 74 % 1028,0 hPa 0,0 l/m 0 min 0 min 135 W/m 12,9 km/h (3 Bft) 97,37 %
03.04.2021 10:10 7,9 C 10,0 C 6,1 C 73 % 1028,0 hPa 0,0 l/m 0 min 0 min 148 W/m 12,9 km/h (3 Bft) 97,87 %
03.04.2021 10:12 7,9 C 9,4 C 6,1 C 73 % 1028,0 hPa 0,0 l/m 0 min 0 min 142 W/m 12,9 km/h (3 Bft) 97,87 %
03.04.2021 10:14 7,9 C 10,0 C 6,7 C 73 % 1028,0 hPa 0,0 l/m 0 min 0 min 158 W/m 12,9 km/h (3 Bft) 97,87 %
03.04.2021 10:16 7,8 C 10,6 C 7,3 C 74 % 1028,0 hPa 0,0 l/m 0 min 0 min 181 W/m 22,5 km/h (4 Bft) 97,83 %
03.04.2021 10:18 7,9 C 11,7 C 8,4 C 74 % 1028,1 hPa 0,0 l/m 0 min 0 min 200 W/m 12,9 km/h (3 Bft) 97,87 %
03.04.2021 10:20 7,9 C 12,2 C 9,5 C 74 % 1028,1 hPa 0,0 l/m 2 min 0 min 347 W/m 16,1 km/h (3 Bft) 97,87 %
03.04.2021 10:22 8,0 C 12,8 C 10,6 C 73 % 1028,1 hPa 0,0 l/m 2 min 0 min 472 W/m 19,3 km/h (3 Bft) 97,87 %
03.04.2021 10:24 8,0 C 12,8 C 11,1 C 73 % 1028,2 hPa 0,0 l/m 2 min 0 min 411 W/m 12,9 km/h (3 Bft) 97,87 %
03.04.2021 10:26 8,1 C 13,9 C 11,1 C 73 % 1028,2 hPa 0,0 l/m 2 min 0 min 373 W/m 16,1 km/h (3 Bft) 97,83 %
03.04.2021 10:28 8,3 C 14,4 C 11,7 C 73 % 1028,2 hPa 0,0 l/m 2 min 0 min 366 W/m 16,1 km/h (3 Bft) 96,43 %
03.04.2021 10:30 8,4 C 14,4 C 11,1 C 73 % 1028,2 hPa 0,0 l/m 2 min 0 min 360 W/m 16,1 km/h (3 Bft) 97,87 %
03.04.2021 10:32 8,6 C 15,0 C 11,7 C 72 % 1028,2 hPa 0,0 l/m 2 min 0 min 410 W/m 12,9 km/h (3 Bft) 95,74 %
03.04.2021 10:34 8,8 C 15,6 C 11,7 C 72 % 1028,2 hPa 0,0 l/m 2 min 0 min 478 W/m 9,7 km/h (2 Bft) 97,87 %
03.04.2021 10:36 8,9 C 15,6 C 11,7 C 72 % 1028,2 hPa 0,0 l/m 2 min 0 min 525 W/m 12,9 km/h (3 Bft) 97,83 %
03.04.2021 10:38 9,1 C 15,6 C 11,1 C 71 % 1028,3 hPa 0,0 l/m 2 min 0 min 318 W/m 12,9 km/h (3 Bft) 97,87 %
03.04.2021 10:40 9,2 C 15,6 C 11,7 C 70 % 1028,3 hPa 0,0 l/m 0 min 0 min 230 W/m 12,9 km/h (3 Bft) 97,87 %
03.04.2021 10:42 9,3 C 15,0 C 12,8 C 70 % 1028,3 hPa 0,0 l/m 2 min 0 min 394 W/m 12,9 km/h (3 Bft) 95,74 %
03.04.2021 10:44 9,3 C 14,4 C 13,4 C 70 % 1028,4 hPa 0,0 l/m 2 min 0 min 511 W/m 12,9 km/h (3 Bft) 97,87 %
03.04.2021 10:46 9,4 C 14,4 C 12,8 C 70 % 1028,4 hPa 0,0 l/m 2 min 0 min 615 W/m 22,5 km/h (4 Bft) 97,87 %
03.04.2021 10:48 9,4 C 14,4 C 12,3 C 69 % 1028,4 hPa 0,0 l/m 2 min 0 min 536 W/m 25,7 km/h (4 Bft) 95,65 %
03.04.2021 10:50 9,4 C 13,9 C 11,1 C 69 % 1028,4 hPa 0,0 l/m 2 min 0 min 596 W/m 25,7 km/h (4 Bft) 97,87 %
03.04.2021 10:52 9,4 C 13,9 C 10,6 C 69 % 1028,4 hPa 0,0 l/m 2 min 0 min 589 W/m 16,1 km/h (3 Bft) 97,87 %
03.04.2021 10:54 9,2 C 12,8 C 8,9 C 69 % 1028,4 hPa 0,0 l/m 2 min 0 min 369 W/m 25,7 km/h (4 Bft) 97,87 %
03.04.2021 10:56 9,0 C 12,2 C 8,4 C 70 % 1028,4 hPa 0,0 l/m 0 min 0 min 228 W/m 16,1 km/h (3 Bft) 97,87 %
03.04.2021 10:58 9,0 C 12,2 C 8,9 C 71 % 1028,5 hPa 0,0 l/m 0 min 0 min 268 W/m 16,1 km/h (3 Bft) 97,87 %
03.04.2021 11:00 8,9 C 11,7 C 8,9 C 71 % 1028,5 hPa 0,0 l/m 2 min 0 min 280 W/m 16,1 km/h (3 Bft) 95,65 %
03.04.2021 11:02 8,9 C 11,7 C 8,9 C 71 % 1028,5 hPa 0,0 l/m 2 min 0 min 380 W/m 22,5 km/h (4 Bft) 97,87 %
03.04.2021 11:04 8,8 C 11,1 C 8,9 C 71 % 1028,5 hPa 0,0 l/m 2 min 0 min 283 W/m 16,1 km/h (3 Bft) 100,00 %
03.04.2021 11:06 8,8 C 11,1 C 8,9 C 71 % 1028,4 hPa 0,0 l/m 2 min 0 min 406 W/m 12,9 km/h (3 Bft) 100,00 %
03.04.2021 11:08 8,8 C 11,7 C 8,9 C 72 % 1028,5 hPa 0,0 l/m 2 min 0 min 360 W/m 12,9 km/h (3 Bft) 97,87 %
03.04.2021 11:10 8,8 C 12,2 C 8,9 C 71 % 1028,5 hPa 0,0 l/m 2 min 0 min 345 W/m 19,3 km/h (3 Bft) 95,74 %
03.04.2021 11:12 8,8 C 12,2 C 8,9 C 72 % 1028,5 hPa 0,0 l/m 2 min 0 min 348 W/m 12,9 km/h (3 Bft) 93,48 %
03.04.2021 11:14 8,8 C 12,2 C 8,9 C 72 % 1028,5 hPa 0,0 l/m 2 min 0 min 302 W/m 12,9 km/h (3 Bft) 97,87 %
03.04.2021 11:16 8,8 C 12,2 C 9,5 C 72 % 1028,5 hPa 0,0 l/m 2 min 0 min 721 W/m 16,1 km/h (3 Bft) 95,74 %
03.04.2021 11:18 8,8 C 12,8 C 9,5 C 73 % 1028,5 hPa 0,0 l/m 2 min 0 min 768 W/m 22,5 km/h (4 Bft) 93,62 %
03.04.2021 11:20 8,9 C 12,2 C 8,9 C 72 % 1028,5 hPa 0,0 l/m 2 min 0 min 624 W/m 19,3 km/h (3 Bft) 95,74 %
03.04.2021 11:22 8,9 C 12,2 C 10,0 C 72 % 1028,5 hPa 0,0 l/m 2 min 0 min 378 W/m 16,1 km/h (3 Bft) 97,87 %
03.04.2021 11:24 8,9 C 12,2 C 10,0 C 72 % 1028,4 hPa 0,0 l/m 2 min 0 min 378 W/m 16,1 km/h (3 Bft) 97,87 %
03.04.2021 11:26 8,9 C 11,7 C 9,5 C 72 % 1028,5 hPa 0,0 l/m 0 min 0 min 289 W/m 16,1 km/h (3 Bft) 97,87 %
03.04.2021 11:28 8,8 C 11,1 C 9,5 C 72 % 1028,5 hPa 0,0 l/m 0 min 0 min 269 W/m 19,3 km/h (3 Bft) 95,74 %
03.04.2021 11:30 8,8 C 11,1 C 10,0 C 72 % 1028,5 hPa 0,0 l/m 0 min 0 min 269 W/m 22,5 km/h (4 Bft) 95,74 %
03.04.2021 11:32 8,8 C 11,1 C 9,5 C 73 % 1028,4 hPa 0,0 l/m 0 min 0 min 264 W/m 25,7 km/h (4 Bft) 97,87 %
03.04.2021 11:34 8,8 C 11,7 C 10,0 C 73 % 1028,5 hPa 0,0 l/m 0 min 0 min 260 W/m 9,7 km/h (2 Bft) 47,50 %
03.04.2021 11:36 8,8 C 11,1 C 9,5 C 73 % 1028,4 hPa 0,0 l/m 0 min 0 min 283 W/m 9,7 km/h (2 Bft) 97,87 %
03.04.2021 11:38 8,9 C 11,7 C 10,0 C 74 % 1028,4 hPa 0,0 l/m 0 min 0 min 298 W/m 9,7 km/h (2 Bft) 97,87 %
03.04.2021 11:40 8,9 C 11,7 C 10,6 C 74 % 1028,4 hPa 0,0 l/m 2 min 0 min 382 W/m 25,7 km/h (4 Bft) 97,87 %
03.04.2021 11:42 9,0 C 12,2 C 11,7 C 74 % 1028,4 hPa 0,0 l/m 2 min 0 min 460 W/m 19,3 km/h (3 Bft) 97,87 %
03.04.2021 11:44 9,0 C 11,7 C 11,1 C 73 % 1028,5 hPa 0,0 l/m 2 min 0 min 535 W/m 16,1 km/h (3 Bft) 97,87 %
03.04.2021 11:46 9,0 C 11,7 C 9,5 C 73 % 1028,5 hPa 0,0 l/m 0 min 0 min 270 W/m 22,5 km/h (4 Bft) 97,83 %
03.04.2021 11:48 9,0 C 11,1 C 9,5 C 73 % 1028,4 hPa 0,0 l/m 0 min 0 min 298 W/m 9,7 km/h (2 Bft) 95,74 %
03.04.2021 11:50 8,9 C 12,2 C 11,1 C 73 % 1028,4 hPa 0,0 l/m 2 min 0 min 353 W/m 6,4 km/h (2 Bft) 93,62 %
03.04.2021 11:52 9,0 C 13,3 C 12,3 C 74 % 1028,4 hPa 0,0 l/m 2 min 0 min 421 W/m 22,5 km/h (4 Bft) 97,87 %
03.04.2021 11:54 9,1 C 14,4 C 12,8 C 74 % 1028,4 hPa 0,0 l/m 2 min 0 min 819 W/m 16,1 km/h (3 Bft) 97,87 %
03.04.2021 11:56 9,4 C 15,6 C 14,5 C 74 % 1028,5 hPa 0,0 l/m 2 min 0 min 880 W/m 12,9 km/h (3 Bft) 95,74 %
03.04.2021 11:58 9,5 C 15,6 C 13,9 C 73 % 1028,4 hPa 0,0 l/m 2 min 0 min 844 W/m 9,7 km/h (2 Bft) 95,65 %
03.04.2021 12:00 9,6 C 13,9 C 12,8 C 72 % 1028,4 hPa 0,0 l/m 2 min 0 min 508 W/m 22,5 km/h (4 Bft) 97,92 %
03.04.2021 12:02 9,6 C 12,8 C 11,1 C 72 % 1028,4 hPa 0,0 l/m 2 min 0 min 359 W/m 22,5 km/h (4 Bft) 97,83 %
03.04.2021 12:04 9,5 C 11,7 C 10,0 C 72 % 1028,4 hPa 0,0 l/m 0 min 0 min 313 W/m 19,3 km/h (3 Bft) 97,87 %
03.04.2021 12:08 9,4 C 12,2 C 11,1 C 73 % 1028,4 hPa 0,0 l/m 4 min 0 min 349 W/m 22,5 km/h (4 Bft) 96,84 %
03.04.2021 12:10 9,5 C 13,9 C 13,4 C 73 % 1028,4 hPa 0,0 l/m 2 min 0 min 718 W/m 16,1 km/h (3 Bft) 97,83 %
03.04.2021 12:12 9,6 C 13,9 C 12,3 C 73 % 1028,4 hPa 0,0 l/m 2 min 0 min 750 W/m 19,3 km/h (3 Bft) 91,49 %
03.04.2021 12:14 9,6 C 13,3 C 11,1 C 73 % 1028,4 hPa 0,0 l/m 2 min 0 min 328 W/m 16,1 km/h (3 Bft) 91,49 %
03.04.2021 12:16 9,7 C 13,9 C 11,7 C 74 % 1028,4 hPa 0,0 l/m 2 min 0 min 339 W/m 16,1 km/h (3 Bft) 97,87 %
03.04.2021 12:18 9,8 C 12,8 C 10,0 C 73 % 1028,4 hPa 0,0 l/m 0 min 0 min 312 W/m 22,5 km/h (4 Bft) 100,00 %
03.04.2021 12:20 9,7 C 13,3 C 10,6 C 73 % 1028,3 hPa 0,0 l/m 0 min 0 min 302 W/m 19,3 km/h (3 Bft) 100,00 %
03.04.2021 12:22 9,8 C 13,3 C 10,6 C 73 % 1028,3 hPa 0,0 l/m 0 min 0 min 297 W/m 12,9 km/h (3 Bft) 100,00 %
03.04.2021 12:24 9,7 C 12,2 C 9,5 C 73 % 1028,4 hPa 0,0 l/m 0 min 0 min 265 W/m 12,9 km/h (3 Bft) 87,23 %
03.04.2021 12:26 9,5 C 11,7 C 8,9 C 73 % 1028,4 hPa 0,0 l/m 0 min 0 min 264 W/m 16,1 km/h (3 Bft) 97,87 %
03.04.2021 12:28 9,5 C 12,8 C 11,1 C 73 % 1028,4 hPa 0,0 l/m 0 min 0 min 265 W/m 16,1 km/h (3 Bft) 97,87 %
03.04.2021 12:30 9,6 C 13,9 C 12,8 C 73 % 1028,3 hPa 0,0 l/m 2 min 0 min 676 W/m 16,1 km/h (3 Bft) 100,00 %
03.04.2021 12:32 9,7 C 15,0 C 13,4 C 73 % 1028,4 hPa 0,0 l/m 2 min 0 min 638 W/m 19,3 km/h (3 Bft) 97,87 %
03.04.2021 12:34 9,8 C 15,6 C 15,0 C 73 % 1028,4 hPa 0,0 l/m 2 min 0 min 722 W/m 9,7 km/h (2 Bft) 97,83 %
03.04.2021 12:36 9,9 C 16,1 C 15,6 C 73 % 1028,4 hPa 0,0 l/m 2 min 0 min 836 W/m 9,7 km/h (2 Bft) 100,00 %
03.04.2021 12:38 10,1 C 16,7 C 16,7 C 73 % 1028,4 hPa 0,0 l/m 2 min 0 min 923 W/m 12,9 km/h (3 Bft) 100,00 %
03.04.2021 12:40 10,2 C 16,7 C 16,7 C 72 % 1028,5 hPa 0,0 l/m 2 min 0 min 885 W/m 12,9 km/h (3 Bft) 100,00 %
03.04.2021 12:42 10,3 C 16,7 C 16,1 C 73 % 1028,4 hPa 0,0 l/m 2 min 0 min 668 W/m 12,9 km/h (3 Bft) 97,14 %
03.04.2021 12:44 10,4 C 15,0 C 15,0 C 72 % 1028,4 hPa 0,0 l/m 2 min 0 min 472 W/m 16,1 km/h (3 Bft) 98,31 %
03.04.2021 12:46 10,4 C 15,6 C 15,6 C 72 % 1028,4 hPa 0,0 l/m 2 min 0 min 656 W/m 12,9 km/h (3 Bft) 100,00 %
03.04.2021 12:48 10,4 C 14,4 C 13,9 C 71 % 1028,5 hPa 0,0 l/m 2 min 0 min 670 W/m 19,3 km/h (3 Bft) 100,00 %
03.04.2021 12:50 10,4 C 13,9 C 12,8 C 71 % 1028,4 hPa 0,0 l/m 0 min 0 min 260 W/m 12,9 km/h (3 Bft) 100,00 %
03.04.2021 12:52 10,3 C 12,2 C 11,1 C 71 % 1028,5 hPa 0,0 l/m 0 min 0 min 282 W/m 12,9 km/h (3 Bft) 97,87 %
03.04.2021 12:54 10,1 C 12,8 C 11,1 C 72 % 1028,4 hPa 0,0 l/m 0 min 0 min 329 W/m 19,3 km/h (3 Bft) 100,00 %
03.04.2021 12:56 10,0 C 15,0 C 12,8 C 72 % 1028,4 hPa 0,0 l/m 2 min 0 min 860 W/m 19,3 km/h (3 Bft) 97,92 %
03.04.2021 12:58 10,1 C 15,6 C 13,4 C 72 % 1028,4 hPa 0,0 l/m 2 min 0 min 877 W/m 16,1 km/h (3 Bft) 100,00 %
03.04.2021 13:00 10,3 C 16,7 C 12,3 C 72 % 1028,4 hPa 0,0 l/m 2 min 0 min 824 W/m 19,3 km/h (3 Bft) 100,00 %
03.04.2021 13:02 10,4 C 17,2 C 12,3 C 72 % 1028,4 hPa 0,0 l/m 2 min 0 min 774 W/m 12,9 km/h (3 Bft) 97,87 %
03.04.2021 13:04 10,5 C 17,2 C 12,3 C 72 % 1028,4 hPa 0,0 l/m 2 min 0 min 790 W/m 22,5 km/h (4 Bft) 100,00 %
03.04.2021 13:06 10,5 C 17,8 C 12,3 C 71 % 1028,4 hPa 0,0 l/m 2 min 0 min 822 W/m 12,9 km/h (3 Bft) 100,00 %
03.04.2021 13:08 10,7 C 17,8 C 12,3 C 71 % 1028,4 hPa 0,0 l/m 2 min 0 min 855 W/m 16,1 km/h (3 Bft) 100,00 %
03.04.2021 13:10 10,8 C 17,2 C 12,3 C 71 % 1028,4 hPa 0,0 l/m 2 min 0 min 820 W/m 22,5 km/h (4 Bft) 97,87 %
03.04.2021 13:12 10,9 C 16,1 C 11,1 C 70 % 1028,4 hPa 0,0 l/m 2 min 0 min 803 W/m 19,3 km/h (3 Bft) 100,00 %
03.04.2021 13:14 10,9 C 16,1 C 11,1 C 71 % 1028,4 hPa 0,0 l/m 2 min 0 min 872 W/m 29,0 km/h (5 Bft) 100,00 %
03.04.2021 13:16 10,9 C 16,1 C 11,7 C 69 % 1028,5 hPa 0,0 l/m 2 min 0 min 872 W/m 12,9 km/h (3 Bft) 100,00 %
03.04.2021 13:18 10,9 C 15,0 C 11,1 C 69 % 1028,4 hPa 0,0 l/m 2 min 0 min 872 W/m 19,3 km/h (3 Bft) 100,00 %
03.04.2021 13:20 10,9 C 16,1 C 10,6 C 70 % 1028,4 hPa 0,0 l/m 2 min 0 min 862 W/m 12,9 km/h (3 Bft) 97,87 %
03.04.2021 13:22 11,1 C 17,8 C 11,1 C 70 % 1028,4 hPa 0,0 l/m 2 min 0 min 803 W/m 6,4 km/h (2 Bft) 100,00 %
03.04.2021 13:24 11,1 C 18,9 C 11,1 C 69 % 1028,3 hPa 0,0 l/m 2 min 0 min 833 W/m 19,3 km/h (3 Bft) 100,00 %
03.04.2021 13:26 11,2 C 18,9 C 11,7 C 69 % 1028,3 hPa 0,0 l/m 2 min 0 min 832 W/m 12,9 km/h (3 Bft) 95,74 %
03.04.2021 13:28 11,4 C 17,8 C 11,1 C 70 % 1028,4 hPa 0,0 l/m 2 min 0 min 611 W/m 12,9 km/h (3 Bft) 100,00 %
03.04.2021 13:30 11,4 C 17,2 C 11,7 C 69 % 1028,4 hPa 0,0 l/m 0 min 0 min 262 W/m 19,3 km/h (3 Bft) 97,87 %
03.04.2021 13:32 11,5 C 17,2 C 12,3 C 69 % 1028,5 hPa 0,0 l/m 0 min 0 min 262 W/m 19,3 km/h (3 Bft) 100,00 %
03.04.2021 13:34 11,5 C 16,7 C 11,1 C 68 % 1028,5 hPa 0,0 l/m 0 min 0 min 262 W/m 12,9 km/h (3 Bft) 100,00 %
03.04.2021 13:36 11,5 C 17,2 C 12,8 C 68 % 1028,5 hPa 0,0 l/m 0 min 0 min 287 W/m 16,1 km/h (3 Bft) 97,83 %
03.04.2021 13:38 11,5 C 17,8 C 13,4 C 68 % 1028,5 hPa 0,0 l/m 2 min 0 min 845 W/m 12,9 km/h (3 Bft) 100,00 %
03.04.2021 13:40 11,6 C 18,3 C 12,8 C 68 % 1028,5 hPa 0,0 l/m 2 min 0 min 815 W/m 16,1 km/h (3 Bft) 97,87 %
03.04.2021 13:42 11,6 C 18,9 C 12,3 C 67 % 1028,5 hPa 0,0 l/m 2 min 0 min 809 W/m 22,5 km/h (4 Bft) 100,00 %
03.04.2021 13:44 11,5 C 17,8 C 11,7 C 67 % 1028,5 hPa 0,0 l/m 2 min 0 min 470 W/m 12,9 km/h (3 Bft) 100,00 %
03.04.2021 13:46 11,6 C 17,8 C 11,7 C 68 % 1028,5 hPa 0,0 l/m 2 min 0 min 736 W/m 22,5 km/h (4 Bft) 97,87 %
03.04.2021 13:48 11,6 C 18,3 C 10,6 C 68 % 1028,5 hPa 0,0 l/m 2 min 0 min 869 W/m 22,5 km/h (4 Bft) 97,83 %
03.04.2021 13:50 11,6 C 18,9 C 10,6 C 68 % 1028,5 hPa 0,0 l/m 2 min 0 min 842 W/m 25,7 km/h (4 Bft) 95,74 %
03.04.2021 13:52 11,7 C 19,4 C 10,6 C 67 % 1028,5 hPa 0,0 l/m 2 min 0 min 782 W/m 16,1 km/h (3 Bft) 95,74 %
03.04.2021 13:54 11,8 C 18,9 C 10,6 C 67 % 1028,5 hPa 0,0 l/m 2 min 0 min 841 W/m 16,1 km/h (3 Bft) 95,74 %
03.04.2021 13:56 11,9 C 18,9 C 10,0 C 67 % 1028,4 hPa 0,0 l/m 2 min 0 min 806 W/m 16,1 km/h (3 Bft) 95,74 %
03.04.2021 13:58 11,9 C 18,9 C 10,0 C 68 % 1028,5 hPa 0,0 l/m 2 min 0 min 786 W/m 16,1 km/h (3 Bft) 95,74 %
03.04.2021 14:00 12,0 C 19,4 C 10,0 C 67 % 1028,5 hPa 0,0 l/m 2 min 0 min 840 W/m 12,9 km/h (3 Bft) 95,65 %
03.04.2021 14:02 12,0 C 18,9 C 10,0 C 66 % 1028,4 hPa 0,0 l/m 2 min 0 min 862 W/m 22,5 km/h (4 Bft) 95,74 %
03.04.2021 14:04 12,0 C 18,3 C 10,6 C 66 % 1028,4 hPa 0,0 l/m 2 min 0 min 882 W/m 16,1 km/h (3 Bft) 85,11 %
03.04.2021 14:06 12,1 C 17,2 C 10,0 C 67 % 1028,5 hPa 0,0 l/m 2 min 0 min 817 W/m 16,1 km/h (3 Bft) 65,96 %
03.04.2021 14:08 11,9 C 15,6 C 9,5 C 66 % 1028,4 hPa 0,0 l/m 0 min 0 min 219 W/m 19,3 km/h (3 Bft) 55,32 %
03.04.2021 14:10 11,8 C 14,4 C 9,5 C 65 % 1028,4 hPa 0,0 l/m 0 min 0 min 220 W/m 19,3 km/h (3 Bft) 63,83 %
03.04.2021 14:12 11,6 C 13,9 C 9,5 C 65 % 1028,4 hPa 0,0 l/m 0 min 0 min 279 W/m 12,9 km/h (3 Bft) 54,35 %
03.04.2021 14:14 11,6 C 15,6 C 9,5 C 66 % 1028,4 hPa 0,0 l/m 2 min 0 min 605 W/m 9,7 km/h (2 Bft) 87,23 %
03.04.2021 14:16 11,6 C 16,7 C 10,0 C 67 % 1028,4 hPa 0,0 l/m 2 min 0 min 813 W/m 12,9 km/h (3 Bft) 72,34 %
03.04.2021 14:18 11,6 C 17,2 C 10,0 C 66 % 1028,4 hPa 0,0 l/m 2 min 0 min 782 W/m 12,9 km/h (3 Bft) 80,85 %
03.04.2021 14:20 11,8 C 17,8 C 9,5 C 66 % 1028,4 hPa 0,0 l/m 2 min 0 min 743 W/m 19,3 km/h (3 Bft) 74,47 %
03.04.2021 14:22 11,8 C 17,8 C 10,0 C 65 % 1028,4 hPa 0,0 l/m 2 min 0 min 723 W/m 9,7 km/h (2 Bft) 65,96 %
03.04.2021 14:24 11,9 C 18,3 C 9,5 C 65 % 1028,3 hPa 0,0 l/m 2 min 0 min 740 W/m 9,7 km/h (2 Bft) 58,70 %
03.04.2021 14:26 11,9 C 18,3 C 9,5 C 65 % 1028,3 hPa 0,0 l/m 2 min 0 min 708 W/m 16,1 km/h (3 Bft) 65,96 %
03.04.2021 14:28 11,9 C 17,8 C 9,5 C 64 % 1028,3 hPa 0,0 l/m 2 min 0 min 729 W/m 12,9 km/h (3 Bft) 55,32 %
03.04.2021 14:30 11,9 C 17,8 C 9,5 C 64 % 1028,2 hPa 0,0 l/m 2 min 0 min 774 W/m 12,9 km/h (3 Bft) 48,94 %
03.04.2021 14:32 11,9 C 17,2 C 9,5 C 65 % 1028,2 hPa 0,0 l/m 2 min 0 min 788 W/m 19,3 km/h (3 Bft) 51,06 %
03.04.2021 14:34 11,9 C 16,1 C 9,5 C 65 % 1028,2 hPa 0,0 l/m 2 min 0 min 586 W/m 12,9 km/h (3 Bft) 51,06 %
03.04.2021 14:36 11,9 C 14,4 C 9,5 C 65 % 1028,2 hPa 0,0 l/m 0 min 0 min 300 W/m 22,5 km/h (4 Bft) 73,33 %
03.04.2021 14:38 11,8 C 14,4 C 9,5 C 65 % 1028,2 hPa 0,0 l/m 2 min 0 min 362 W/m 16,1 km/h (3 Bft) 82,98 %
03.04.2021 14:40 11,8 C 16,1 C 9,5 C 65 % 1028,2 hPa 0,0 l/m 2 min 0 min 593 W/m 19,3 km/h (3 Bft) 93,62 %
03.04.2021 14:42 11,8 C 16,7 C 9,5 C 65 % 1028,1 hPa 0,0 l/m 2 min 0 min 835 W/m 19,3 km/h (3 Bft) 91,49 %
03.04.2021 14:44 11,9 C 17,8 C 9,5 C 64 % 1028,2 hPa 0,0 l/m 2 min 0 min 638 W/m 9,7 km/h (2 Bft) 91,49 %
03.04.2021 14:46 11,9 C 18,3 C 10,0 C 64 % 1028,1 hPa 0,0 l/m 2 min 0 min 678 W/m 9,7 km/h (2 Bft) 93,62 %
03.04.2021 14:48 12,0 C 18,3 C 10,0 C 65 % 1028,1 hPa 0,0 l/m 2 min 0 min 604 W/m 12,9 km/h (3 Bft) 93,48 %
03.04.2021 14:50 12,0 C 17,8 C 10,0 C 64 % 1028,0 hPa 0,0 l/m 2 min 0 min 506 W/m 6,4 km/h (2 Bft) 93,62 %
03.04.2021 14:52 12,0 C 16,1 C 10,0 C 64 % 1028,0 hPa 0,0 l/m 0 min 0 min 277 W/m 9,7 km/h (2 Bft) 93,62 %
03.04.2021 14:54 12,0 C 15,0 C 9,5 C 64 % 1028,1 hPa 0,0 l/m 0 min 0 min 239 W/m 16,1 km/h (3 Bft) 95,74 %
03.04.2021 14:56 11,9 C 13,9 C 9,5 C 64 % 1028,0 hPa 0,0 l/m 0 min 0 min 255 W/m 19,3 km/h (3 Bft) 97,87 %
03.04.2021 14:58 11,8 C 13,9 C 9,5 C 64 % 1028,1 hPa 0,0 l/m 0 min 0 min 264 W/m 6,4 km/h (2 Bft) 97,87 %
03.04.2021 15:00 11,8 C 15,0 C 9,5 C 65 % 1028,0 hPa 0,0 l/m 2 min 0 min 494 W/m 19,3 km/h (3 Bft) 97,83 %
03.04.2021 15:02 11,8 C 15,6 C 9,5 C 64 % 1028,0 hPa 0,0 l/m 2 min 0 min 598 W/m 12,9 km/h (3 Bft) 91,49 %
03.04.2021 15:04 11,9 C 17,2 C 9,5 C 64 % 1028,0 hPa 0,0 l/m 2 min 0 min 674 W/m 16,1 km/h (3 Bft) 95,74 %
03.04.2021 15:06 11,9 C 17,2 C 9,5 C 64 % 1027,9 hPa 0,0 l/m 2 min 0 min 705 W/m 16,1 km/h (3 Bft) 95,74 %
03.04.2021 15:08 11,9 C 16,1 C 9,5 C 63 % 1027,9 hPa 0,0 l/m 2 min 0 min 343 W/m 12,9 km/h (3 Bft) 97,87 %
03.04.2021 15:10 11,9 C 16,1 C 9,5 C 62 % 1027,9 hPa 0,0 l/m 0 min 0 min 276 W/m 16,1 km/h (3 Bft) 97,83 %
03.04.2021 15:12 11,9 C 17,8 C 9,5 C 63 % 1027,9 hPa 0,0 l/m 2 min 0 min 709 W/m 6,4 km/h (2 Bft) 95,74 %
03.04.2021 15:14 12,0 C 18,3 C 9,5 C 63 % 1027,9 hPa 0,0 l/m 2 min 0 min 696 W/m 9,7 km/h (2 Bft) 97,87 %
03.04.2021 15:16 12,2 C 19,4 C 10,0 C 63 % 1027,9 hPa 0,0 l/m 2 min 0 min 686 W/m 9,7 km/h (2 Bft) 95,74 %
03.04.2021 15:18 12,3 C 18,9 C 10,6 C 64 % 1027,8 hPa 0,0 l/m 2 min 0 min 598 W/m 19,3 km/h (3 Bft) 95,74 %
03.04.2021 15:20 12,4 C 18,3 C 10,0 C 63 % 1027,7 hPa 0,0 l/m 2 min 0 min 587 W/m 25,7 km/h (4 Bft) 97,87 %
03.04.2021 15:22 12,5 C 18,9 C 10,0 C 62 % 1027,8 hPa 0,0 l/m 2 min 0 min 650 W/m 22,5 km/h (4 Bft) 100,00 %
03.04.2021 15:24 12,5 C 18,9 C 10,0 C 62 % 1027,7 hPa 0,0 l/m 2 min 0 min 614 W/m 19,3 km/h (3 Bft) 95,74 %
03.04.2021 15:26 12,5 C 18,3 C 10,0 C 61 % 1027,7 hPa 0,0 l/m 2 min 0 min 634 W/m 12,9 km/h (3 Bft) 100,00 %
03.04.2021 15:28 12,5 C 18,9 C 10,0 C 61 % 1027,7 hPa 0,0 l/m 2 min 0 min 708 W/m 16,1 km/h (3 Bft) 97,87 %
03.04.2021 15:30 12,5 C 19,4 C 10,0 C 61 % 1027,7 hPa 0,0 l/m 2 min 0 min 720 W/m 12,9 km/h (3 Bft) 100,00 %
03.04.2021 15:32 12,6 C 20,0 C 10,0 C 62 % 1027,6 hPa 0,0 l/m 2 min 0 min 695 W/m 12,9 km/h (3 Bft) 100,00 %
03.04.2021 15:34 12,6 C 19,4 C 10,0 C 61 % 1027,7 hPa 0,0 l/m 2 min 0 min 677 W/m 16,1 km/h (3 Bft) 95,74 %
03.04.2021 15:36 12,7 C 20,0 C 10,0 C 61 % 1027,7 hPa 0,0 l/m 2 min 0 min 680 W/m 9,7 km/h (2 Bft) 100,00 %
03.04.2021 15:38 12,8 C 20,6 C 10,0 C 60 % 1027,6 hPa 0,0 l/m 2 min 0 min 720 W/m 16,1 km/h (3 Bft) 100,00 %
03.04.2021 15:40 12,9 C 21,7 C 10,6 C 60 % 1027,6 hPa 0,0 l/m 2 min 0 min 723 W/m 9,7 km/h (2 Bft) 100,00 %
03.04.2021 15:42 13,0 C 21,1 C 10,6 C 61 % 1027,6 hPa 0,0 l/m 2 min 0 min 719 W/m 9,7 km/h (2 Bft) 100,00 %
03.04.2021 15:44 13,1 C 20,0 C 10,0 C 59 % 1027,5 hPa 0,0 l/m 2 min 0 min 325 W/m 16,1 km/h (3 Bft) 100,00 %
03.04.2021 15:46 13,1 C 18,9 C 10,0 C 59 % 1027,5 hPa 0,0 l/m 0 min 0 min 257 W/m 16,1 km/h (3 Bft) 97,83 %
03.04.2021 15:48 13,0 C 18,3 C 10,0 C 59 % 1027,5 hPa 0,0 l/m 2 min 0 min 581 W/m 9,7 km/h (2 Bft) 100,00 %
03.04.2021 15:50 13,0 C 17,2 C 9,5 C 59 % 1027,6 hPa 0,0 l/m 0 min 0 min 188 W/m 6,4 km/h (2 Bft) 100,00 %
03.04.2021 15:52 12,9 C 15,6 C 9,5 C 59 % 1027,5 hPa 0,0 l/m 0 min 0 min 153 W/m 22,5 km/h (4 Bft) 97,87 %
03.04.2021 15:54 12,7 C 17,2 C 9,5 C 59 % 1027,5 hPa 0,0 l/m 2 min 0 min 315 W/m 25,7 km/h (4 Bft) 97,87 %
03.04.2021 15:56 12,6 C 18,9 C 10,0 C 58 % 1027,5 hPa 0,0 l/m 2 min 0 min 653 W/m 16,1 km/h (3 Bft) 100,00 %
03.04.2021 15:58 12,6 C 19,4 C 10,0 C 56 % 1027,5 hPa 0,0 l/m 2 min 0 min 636 W/m 12,9 km/h (3 Bft) 100,00 %
03.04.2021 16:00 12,5 C 19,4 C 9,5 C 57 % 1027,5 hPa 0,0 l/m 2 min 0 min 652 W/m 16,1 km/h (3 Bft) 100,00 %
03.04.2021 16:02 12,5 C 20,6 C 10,0 C 57 % 1027,4 hPa 0,0 l/m 2 min 0 min 680 W/m 22,5 km/h (4 Bft) 100,00 %
03.04.2021 16:04 12,6 C 20,0 C 10,0 C 57 % 1027,5 hPa 0,0 l/m 2 min 0 min 649 W/m 16,1 km/h (3 Bft) 100,00 %
03.04.2021 16:06 12,6 C 19,4 C 10,0 C 56 % 1027,5 hPa 0,0 l/m 2 min 0 min 622 W/m 12,9 km/h (3 Bft) 100,00 %
03.04.2021 16:08 12,5 C 17,8 C 10,0 C 57 % 1027,5 hPa 0,0 l/m 2 min 0 min 611 W/m 9,7 km/h (2 Bft) 100,00 %
03.04.2021 16:10 12,5 C 16,7 C 10,0 C 58 % 1027,5 hPa 0,0 l/m 0 min 0 min 202 W/m 16,1 km/h (3 Bft) 100,00 %
03.04.2021 16:12 12,5 C 15,6 C 9,5 C 57 % 1027,5 hPa 0,0 l/m 0 min 0 min 205 W/m 12,9 km/h (3 Bft) 100,00 %
03.04.2021 16:14 12,4 C 17,2 C 9,5 C 56 % 1027,6 hPa 0,0 l/m 2 min 0 min 516 W/m 16,1 km/h (3 Bft) 100,00 %
03.04.2021 16:16 12,5 C 18,3 C 10,0 C 57 % 1027,5 hPa 0,0 l/m 2 min 0 min 548 W/m 19,3 km/h (3 Bft) 100,00 %
03.04.2021 16:18 12,4 C 18,3 C 10,0 C 57 % 1027,5 hPa 0,0 l/m 2 min 0 min 550 W/m 12,9 km/h (3 Bft) 100,00 %
03.04.2021 16:20 12,5 C 20,0 C 10,6 C 56 % 1027,5 hPa 0,0 l/m 2 min 0 min 632 W/m 16,1 km/h (3 Bft) 100,00 %
03.04.2021 16:22 12,6 C 20,0 C 10,6 C 55 % 1027,5 hPa 0,0 l/m 2 min 0 min 506 W/m 12,9 km/h (3 Bft) 100,00 %
03.04.2021 16:24 12,6 C 18,9 C 10,6 C 53 % 1027,4 hPa 0,0 l/m 2 min 0 min 504 W/m 19,3 km/h (3 Bft) 100,00 %
03.04.2021 16:26 12,7 C 17,8 C 10,6 C 53 % 1027,4 hPa 0,0 l/m 2 min 0 min 281 W/m 16,1 km/h (3 Bft) 100,00 %
03.04.2021 16:28 12,7 C 16,7 C 10,6 C 53 % 1027,3 hPa 0,0 l/m 2 min 0 min 285 W/m 16,1 km/h (3 Bft) 100,00 %
03.04.2021 16:30 12,6 C 17,2 C 10,6 C 55 % 1027,4 hPa 0,0 l/m 2 min 0 min 318 W/m 16,1 km/h (3 Bft) 100,00 %
03.04.2021 16:32 12,6 C 15,6 C 10,0 C 55 % 1027,3 hPa 0,0 l/m 2 min 0 min 305 W/m 19,3 km/h (3 Bft) 100,00 %
03.04.2021 16:34 12,6 C 15,6 C 10,0 C 55 % 1027,3 hPa 0,0 l/m 0 min 0 min 223 W/m 22,5 km/h (4 Bft) 100,00 %
03.04.2021 16:36 12,5 C 15,0 C 9,5 C 56 % 1027,3 hPa 0,0 l/m 0 min 0 min 216 W/m 12,9 km/h (3 Bft) 100,00 %
03.04.2021 16:38 12,5 C 14,4 C 9,5 C 56 % 1027,3 hPa 0,0 l/m 0 min 0 min 209 W/m 22,5 km/h (4 Bft) 100,00 %
03.04.2021 16:40 12,4 C 13,9 C 9,5 C 55 % 1027,3 hPa 0,0 l/m 0 min 0 min 208 W/m 22,5 km/h (4 Bft) 100,00 %
03.04.2021 16:42 12,4 C 15,6 C 9,5 C 55 % 1027,2 hPa 0,0 l/m 2 min 0 min 322 W/m 22,5 km/h (4 Bft) 100,00 %
03.04.2021 16:44 12,4 C 17,2 C 10,0 C 55 % 1027,3 hPa 0,0 l/m 2 min 0 min 515 W/m 12,9 km/h (3 Bft) 100,00 %
03.04.2021 16:46 12,5 C 17,2 C 10,0 C 57 % 1027,2 hPa 0,0 l/m 2 min 0 min 448 W/m 16,1 km/h (3 Bft) 97,83 %
03.04.2021 16:48 12,4 C 17,2 C 10,0 C 55 % 1027,2 hPa 0,0 l/m 2 min 0 min 428 W/m 12,9 km/h (3 Bft) 97,87 %
03.04.2021 16:50 12,5 C 18,3 C 10,0 C 56 % 1027,2 hPa 0,0 l/m 2 min 0 min 456 W/m 9,7 km/h (2 Bft) 97,87 %
03.04.2021 16:52 12,5 C 18,3 C 10,0 C 56 % 1027,1 hPa 0,0 l/m 2 min 0 min 408 W/m 16,1 km/h (3 Bft) 95,74 %
03.04.2021 16:54 12,6 C 18,3 C 10,0 C 56 % 1027,1 hPa 0,0 l/m 2 min 0 min 500 W/m 16,1 km/h (3 Bft) 97,87 %
03.04.2021 16:56 12,6 C 20,0 C 10,6 C 56 % 1027,1 hPa 0,0 l/m 2 min 0 min 535 W/m 12,9 km/h (3 Bft) 91,49 %
03.04.2021 16:58 12,8 C 18,9 C 10,6 C 56 % 1027,0 hPa 0,0 l/m 2 min 0 min 445 W/m 9,7 km/h (2 Bft) 97,83 %
03.04.2021 17:00 12,8 C 17,2 C 10,6 C 56 % 1027,0 hPa 0,0 l/m 2 min 0 min 244 W/m 12,9 km/h (3 Bft) 97,87 %
03.04.2021 17:02 12,8 C 18,3 C 10,6 C 55 % 1027,1 hPa 0,0 l/m 2 min 0 min 417 W/m 12,9 km/h (3 Bft) 95,74 %
03.04.2021 17:04 12,9 C 19,4 C 10,6 C 56 % 1027,0 hPa 0,0 l/m 2 min 0 min 463 W/m 9,7 km/h (2 Bft) 97,87 %
03.04.2021 17:06 12,9 C 18,3 C 10,0 C 55 % 1027,0 hPa 0,0 l/m 2 min 0 min 341 W/m 12,9 km/h (3 Bft) 95,74 %
03.04.2021 17:08 12,9 C 18,3 C 10,6 C 55 % 1026,9 hPa 0,0 l/m 2 min 0 min 412 W/m 16,1 km/h (3 Bft) 97,87 %
03.04.2021 17:10 12,9 C 18,9 C 10,0 C 55 % 1026,9 hPa 0,0 l/m 2 min 0 min 432 W/m 22,5 km/h (4 Bft) 97,83 %
03.04.2021 17:12 12,9 C 18,9 C 10,0 C 55 % 1026,9 hPa 0,0 l/m 2 min 0 min 475 W/m 16,1 km/h (3 Bft) 93,62 %
03.04.2021 17:14 12,9 C 19,4 C 10,6 C 56 % 1026,9 hPa 0,0 l/m 2 min 0 min 436 W/m 12,9 km/h (3 Bft) 97,87 %
03.04.2021 17:16 13,0 C 20,0 C 10,6 C 56 % 1026,9 hPa 0,0 l/m 2 min 0 min 413 W/m 9,7 km/h (2 Bft) 97,87 %
03.04.2021 17:18 13,0 C 19,4 C 10,6 C 55 % 1026,8 hPa 0,0 l/m 2 min 0 min 417 W/m 9,7 km/h (2 Bft) 95,74 %
03.04.2021 17:20 13,1 C 18,9 C 10,6 C 55 % 1026,9 hPa 0,0 l/m 2 min 0 min 422 W/m 16,1 km/h (3 Bft) 93,62 %
03.04.2021 17:22 13,1 C 18,9 C 10,6 C 55 % 1026,8 hPa 0,0 l/m 2 min 0 min 461 W/m 16,1 km/h (3 Bft) 95,65 %
03.04.2021 17:24 13,1 C 18,9 C 10,6 C 55 % 1026,8 hPa 0,0 l/m 2 min 0 min 466 W/m 16,1 km/h (3 Bft) 93,62 %
03.04.2021 17:26 13,2 C 18,3 C 10,6 C 54 % 1026,8 hPa 0,0 l/m 2 min 0 min 469 W/m 12,9 km/h (3 Bft) 95,74 %
03.04.2021 17:28 13,1 C 17,2 C 10,6 C 53 % 1026,7 hPa 0,0 l/m 2 min 0 min 377 W/m 12,9 km/h (3 Bft) 91,49 %
03.04.2021 17:30 13,0 C 15,6 C 10,0 C 53 % 1026,7 hPa 0,0 l/m 0 min 0 min 155 W/m 19,3 km/h (3 Bft) 97,87 %
03.04.2021 17:32 12,8 C 14,4 C 9,5 C 53 % 1026,7 hPa 0,0 l/m 0 min 0 min 168 W/m 6,4 km/h (2 Bft) 93,62 %
03.04.2021 17:34 12,6 C 15,0 C 9,5 C 54 % 1026,7 hPa 0,0 l/m 2 min 0 min 202 W/m 9,7 km/h (2 Bft) 91,30 %
03.04.2021 17:36 12,5 C 16,1 C 9,5 C 55 % 1026,6 hPa 0,0 l/m 2 min 0 min 331 W/m 12,9 km/h (3 Bft) 95,74 %
03.04.2021 17:38 12,5 C 16,7 C 9,5 C 55 % 1026,7 hPa 0,0 l/m 2 min 0 min 351 W/m 6,4 km/h (2 Bft) 91,49 %
03.04.2021 17:40 12,4 C 17,2 C 10,0 C 55 % 1026,6 hPa 0,0 l/m 2 min 0 min 302 W/m 12,9 km/h (3 Bft) 95,74 %
03.04.2021 17:42 12,4 C 17,8 C 10,0 C 55 % 1026,6 hPa 0,0 l/m 2 min 0 min 328 W/m 9,7 km/h (2 Bft) 95,74 %
03.04.2021 17:44 12,5 C 17,8 C 10,0 C 56 % 1026,6 hPa 0,0 l/m 2 min 0 min 334 W/m 6,4 km/h (2 Bft) 95,74 %
03.04.2021 17:46 12,5 C 17,2 C 10,0 C 54 % 1026,5 hPa 0,0 l/m 2 min 0 min 343 W/m 16,1 km/h (3 Bft) 95,65 %
03.04.2021 17:48 12,5 C 18,3 C 10,0 C 55 % 1026,7 hPa 0,0 l/m 2 min 0 min 342 W/m 6,4 km/h (2 Bft) 95,74 %
03.04.2021 17:50 12,6 C 18,9 C 10,0 C 55 % 1026,6 hPa 0,0 l/m 2 min 0 min 364 W/m 6,4 km/h (2 Bft) 95,74 %
03.04.2021 17:52 12,7 C 18,9 C 10,6 C 55 % 1026,5 hPa 0,0 l/m 2 min 0 min 374 W/m 9,7 km/h (2 Bft) 97,87 %
03.04.2021 17:54 12,9 C 18,9 C 10,6 C 55 % 1026,6 hPa 0,0 l/m 2 min 0 min 382 W/m 25,7 km/h (4 Bft) 95,74 %
03.04.2021 17:56 12,9 C 18,9 C 10,6 C 55 % 1026,5 hPa 0,0 l/m 2 min 0 min 394 W/m 16,1 km/h (3 Bft) 93,48 %
03.04.2021 17:58 12,9 C 18,3 C 10,6 C 55 % 1026,6 hPa 0,0 l/m 2 min 0 min 395 W/m 29,0 km/h (5 Bft) 93,62 %
03.04.2021 18:00 12,9 C 18,3 C 10,6 C 55 % 1026,6 hPa 0,0 l/m 2 min 0 min 380 W/m 22,5 km/h (4 Bft) 95,74 %
03.04.2021 18:02 12,9 C 17,8 C 10,6 C 55 % 1026,5 hPa 0,0 l/m 2 min 0 min 368 W/m 9,7 km/h (2 Bft) 93,62 %
03.04.2021 18:04 12,9 C 15,6 C 10,6 C 54 % 1026,5 hPa 0,0 l/m 2 min 0 min 282 W/m 25,7 km/h (4 Bft) 95,74 %
03.04.2021 18:08 12,7 C 13,9 C 10,0 C 54 % 1026,6 hPa 0,0 l/m 0 min 0 min 105 W/m 19,3 km/h (3 Bft) 96,00 %
03.04.2021 18:10 12,6 C 14,4 C 10,0 C 54 % 1026,6 hPa 0,0 l/m 0 min 0 min 135 W/m 12,9 km/h (3 Bft) 95,74 %
03.04.2021 18:12 12,5 C 15,0 C 9,5 C 54 % 1026,5 hPa 0,0 l/m 2 min 0 min 201 W/m 9,7 km/h (2 Bft) 97,87 %
03.04.2021 18:14 12,5 C 16,1 C 9,5 C 55 % 1026,5 hPa 0,0 l/m 2 min 0 min 258 W/m 19,3 km/h (3 Bft) 97,87 %
03.04.2021 18:16 12,4 C 15,6 C 9,5 C 53 % 1026,5 hPa 0,0 l/m 2 min 0 min 264 W/m 16,1 km/h (3 Bft) 95,74 %
03.04.2021 18:18 12,3 C 16,7 C 9,5 C 55 % 1026,5 hPa 0,0 l/m 2 min 0 min 257 W/m 6,4 km/h (2 Bft) 100,00 %
03.04.2021 18:20 12,3 C 17,8 C 9,5 C 55 % 1026,5 hPa 0,0 l/m 2 min 0 min 253 W/m 6,4 km/h (2 Bft) 97,87 %
03.04.2021 18:22 12,4 C 17,8 C 10,0 C 54 % 1026,5 hPa 0,0 l/m 2 min 0 min 243 W/m 16,1 km/h (3 Bft) 100,00 %
03.04.2021 18:24 12,5 C 17,8 C 10,0 C 53 % 1026,5 hPa 0,0 l/m 2 min 0 min 234 W/m 12,9 km/h (3 Bft) 97,87 %
03.04.2021 18:26 12,5 C 17,2 C 10,0 C 53 % 1026,5 hPa 0,0 l/m 2 min 0 min 229 W/m 22,5 km/h (4 Bft) 100,00 %
03.04.2021 18:28 12,5 C 17,2 C 10,0 C 54 % 1026,5 hPa 0,0 l/m 2 min 0 min 223 W/m 9,7 km/h (2 Bft) 100,00 %
03.04.2021 18:30 12,5 C 17,8 C 10,6 C 54 % 1026,5 hPa 0,0 l/m 2 min 0 min 220 W/m 12,9 km/h (3 Bft) 100,00 %
03.04.2021 18:32 12,6 C 17,8 C 10,6 C 54 % 1026,5 hPa 0,0 l/m 2 min 0 min 213 W/m 12,9 km/h (3 Bft) 98,00 %
03.04.2021 18:34 12,5 C 17,2 C 10,0 C 54 % 1026,5 hPa 0,0 l/m 2 min 0 min 206 W/m 12,9 km/h (3 Bft) 100,00 %
03.04.2021 18:36 12,5 C 16,7 C 10,0 C 53 % 1026,5 hPa 0,0 l/m 2 min 0 min 197 W/m 16,1 km/h (3 Bft) 100,00 %
03.04.2021 18:38 12,5 C 16,7 C 10,0 C 54 % 1026,5 hPa 0,0 l/m 2 min 0 min 190 W/m 9,7 km/h (2 Bft) 100,00 %
03.04.2021 18:40 12,4 C 16,7 C 10,0 C 54 % 1026,4 hPa 0,0 l/m 2 min 0 min 182 W/m 16,1 km/h (3 Bft) 100,00 %
03.04.2021 18:42 12,5 C 17,2 C 10,0 C 55 % 1026,5 hPa 0,0 l/m 2 min 0 min 174 W/m 9,7 km/h (2 Bft) 100,00 %
03.04.2021 18:44 12,5 C 16,7 C 10,0 C 55 % 1026,4 hPa 0,0 l/m 2 min 0 min 167 W/m 12,9 km/h (3 Bft) 100,00 %
03.04.2021 18:46 12,5 C 16,7 C 10,0 C 54 % 1026,5 hPa 0,0 l/m 2 min 0 min 157 W/m 19,3 km/h (3 Bft) 100,00 %
03.04.2021 18:48 12,5 C 16,1 C 10,0 C 54 % 1026,4 hPa 0,0 l/m 2 min 0 min 149 W/m 16,1 km/h (3 Bft) 100,00 %
03.04.2021 18:50 12,4 C 16,1 C 10,0 C 55 % 1026,4 hPa 0,0 l/m 2 min 0 min 142 W/m 12,9 km/h (3 Bft) 97,87 %
03.04.2021 18:52 12,4 C 16,1 C 10,0 C 54 % 1026,4 hPa 0,0 l/m 2 min 0 min 133 W/m 22,5 km/h (4 Bft) 100,00 %
03.04.2021 18:54 12,4 C 16,1 C 10,0 C 55 % 1026,4 hPa 0,0 l/m 2 min 0 min 125 W/m 12,9 km/h (3 Bft) 100,00 %
03.04.2021 18:56 12,4 C 14,4 C 9,5 C 55 % 1026,3 hPa 0,0 l/m 2 min 0 min 97 W/m 9,7 km/h (2 Bft) 100,00 %
03.04.2021 18:58 12,4 C 13,3 C 9,5 C 55 % 1026,3 hPa 0,0 l/m 0 min 0 min 54 W/m 12,9 km/h (3 Bft) 100,00 %
03.04.2021 19:00 12,3 C 12,8 C 9,5 C 55 % 1026,3 hPa 0,0 l/m 0 min 0 min 48 W/m 16,1 km/h (3 Bft) 100,00 %
03.04.2021 19:02 12,3 C 12,2 C 9,5 C 55 % 1026,3 hPa 0,0 l/m 0 min 0 min 46 W/m 12,9 km/h (3 Bft) 97,87 %
03.04.2021 19:04 12,2 C 12,2 C 8,9 C 56 % 1026,3 hPa 0,0 l/m 0 min 0 min 47 W/m 9,7 km/h (2 Bft) 100,00 %
03.04.2021 19:06 12,0 C 11,7 C 8,9 C 55 % 1026,3 hPa 0,0 l/m 0 min 0 min 46 W/m 9,7 km/h (2 Bft) 100,00 %
03.04.2021 19:08 11,9 C 11,1 C 8,9 C 56 % 1026,4 hPa 0,0 l/m 0 min 0 min 47 W/m 9,7 km/h (2 Bft) 100,00 %
03.04.2021 19:10 11,9 C 11,1 C 8,9 C 56 % 1026,4 hPa 0,0 l/m 0 min 0 min 46 W/m 9,7 km/h (2 Bft) 100,00 %
03.04.2021 19:12 11,8 C 11,1 C 8,4 C 56 % 1026,4 hPa 0,0 l/m 0 min 0 min 41 W/m 9,7 km/h (2 Bft) 95,74 %
03.04.2021 19:14 11,7 C 11,1 C 8,4 C 57 % 1026,4 hPa 0,0 l/m 0 min 0 min 40 W/m 6,4 km/h (2 Bft) 100,00 %
03.04.2021 19:16 11,6 C 11,1 C 8,4 C 57 % 1026,4 hPa 0,0 l/m 0 min 0 min 40 W/m 3,2 km/h (1 Bft) 97,87 %
03.04.2021 19:18 11,6 C 10,6 C 8,4 C 57 % 1026,4 hPa 0,0 l/m 0 min 0 min 37 W/m 9,7 km/h (2 Bft) 100,00 %
03.04.2021 19:20 11,5 C 10,6 C 8,4 C 57 % 1026,3 hPa 0,0 l/m 0 min 0 min 35 W/m 9,7 km/h (2 Bft) 97,87 %
03.04.2021 19:22 11,4 C 10,6 C 8,4 C 57 % 1026,3 hPa 0,0 l/m 0 min 0 min 37 W/m 9,7 km/h (2 Bft) 100,00 %
03.04.2021 19:24 11,4 C 10,6 C 8,4 C 57 % 1026,3 hPa 0,0 l/m 0 min 0 min 36 W/m 6,4 km/h (2 Bft) 100,00 %
03.04.2021 19:26 11,3 C 10,6 C 7,8 C 58 % 1026,4 hPa 0,0 l/m 0 min 0 min 33 W/m 9,7 km/h (2 Bft) 100,00 %
03.04.2021 19:28 11,3 C 10,6 C 7,8 C 58 % 1026,4 hPa 0,0 l/m 0 min 0 min 32 W/m 9,7 km/h (2 Bft) 100,00 %
03.04.2021 19:30 11,2 C 10,6 C 7,8 C 58 % 1026,4 hPa 0,0 l/m 0 min 0 min 29 W/m 9,7 km/h (2 Bft) 97,87 %
03.04.2021 19:32 11,1 C 10,0 C 7,8 C 58 % 1026,4 hPa 0,0 l/m 0 min 0 min 26 W/m 6,4 km/h (2 Bft) 95,74 %
03.04.2021 19:34 11,1 C 10,0 C 7,8 C 59 % 1026,3 hPa 0,0 l/m 0 min 0 min 25 W/m 12,9 km/h (3 Bft) 97,87 %
03.04.2021 19:36 11,0 C 10,0 C 7,8 C 59 % 1026,4 hPa 0,0 l/m 0 min 0 min 23 W/m 19,3 km/h (3 Bft) 95,74 %
03.04.2021 19:38 11,0 C 10,0 C 7,8 C 60 % 1026,4 hPa 0,0 l/m 0 min 0 min 22 W/m 12,9 km/h (3 Bft) 97,87 %
03.04.2021 19:40 10,9 C 10,0 C 7,8 C 60 % 1026,4 hPa 0,0 l/m 0 min 0 min 21 W/m 12,9 km/h (3 Bft) 95,65 %
03.04.2021 19:42 10,9 C 10,0 C 7,8 C 61 % 1026,3 hPa 0,0 l/m 0 min 0 min 19 W/m 6,4 km/h (2 Bft) 97,87 %
03.04.2021 19:44 10,8 C 10,0 C 7,3 C 61 % 1026,3 hPa 0,0 l/m 0 min 0 min 18 W/m 6,4 km/h (2 Bft) 97,87 %
03.04.2021 19:46 10,8 C 10,0 C 7,3 C 61 % 1026,3 hPa 0,0 l/m 0 min 0 min 16 W/m 9,7 km/h (2 Bft) 93,62 %
03.04.2021 19:48 10,7 C 9,4 C 7,3 C 61 % 1026,3 hPa 0,0 l/m 0 min 0 min 16 W/m 12,9 km/h (3 Bft) 95,74 %
03.04.2021 19:50 10,6 C 9,4 C 7,3 C 62 % 1026,3 hPa 0,0 l/m 0 min 0 min 16 W/m 9,7 km/h (2 Bft) 97,87 %
03.04.2021 19:52 10,6 C 9,4 C 7,3 C 62 % 1026,3 hPa 0,0 l/m 0 min 0 min 14 W/m 6,4 km/h (2 Bft) 91,30 %
03.04.2021 19:54 10,5 C 9,4 C 7,3 C 62 % 1026,3 hPa 0,0 l/m 0 min 0 min 14 W/m 12,9 km/h (3 Bft) 97,87 %
03.04.2021 19:56 10,5 C 9,4 C 7,3 C 62 % 1026,3 hPa 0,0 l/m 0 min 0 min 12 W/m 9,7 km/h (2 Bft) 93,62 %
03.04.2021 19:58 10,5 C 9,4 C 7,3 C 62 % 1026,3 hPa 0,0 l/m 0 min 0 min 11 W/m 9,7 km/h (2 Bft) 95,74 %
03.04.2021 20:00 10,4 C 9,4 C 6,7 C 63 % 1026,2 hPa 0,0 l/m 0 min 0 min 10 W/m 3,2 km/h (1 Bft) 93,62 %
03.04.2021 20:02 10,4 C 9,4 C 6,7 C 63 % 1026,3 hPa 0,0 l/m 0 min 0 min 9 W/m 6,4 km/h (2 Bft) 94,44 %
03.04.2021 20:04 10,3 C 8,9 C 6,7 C 63 % 1026,3 hPa 0,0 l/m 0 min 0 min 7 W/m 6,4 km/h (2 Bft) 95,74 %
03.04.2021 20:06 10,3 C 8,9 C 6,7 C 63 % 1026,3 hPa 0,0 l/m 0 min 0 min 7 W/m 3,2 km/h (1 Bft) 93,10 %
03.04.2021 20:08 10,2 C 8,9 C 6,7 C 63 % 1026,3 hPa 0,0 l/m 0 min 0 min 6 W/m 3,2 km/h (1 Bft) 95,74 %
03.04.2021 20:10 10,1 C 8,9 C 6,7 C 63 % 1026,4 hPa 0,0 l/m 0 min 0 min 5 W/m 3,2 km/h (1 Bft) 94,29 %
03.04.2021 20:12 10,1 C 8,9 C 6,7 C 64 % 1026,3 hPa 0,0 l/m 0 min 0 min 5 W/m 6,4 km/h (2 Bft) 95,74 %
03.04.2021 20:14 10,1 C 8,9 C 6,7 C 64 % 1026,4 hPa 0,0 l/m 0 min 0 min 3 W/m 3,2 km/h (1 Bft) 95,74 %
03.04.2021 20:16 10,1 C 8,9 C 6,7 C 64 % 1026,3 hPa 0,0 l/m 0 min 0 min 0 W/m 3,2 km/h (1 Bft) 89,36 %
03.04.2021 20:18 10,0 C 8,9 C 6,7 C 64 % 1026,3 hPa 0,0 l/m 0 min 0 min 0 W/m 9,7 km/h (2 Bft) 95,74 %
03.04.2021 20:20 10,0 C 8,9 C 6,7 C 64 % 1026,4 hPa 0,0 l/m 0 min 0 min 0 W/m 6,4 km/h (2 Bft) 95,65 %
03.04.2021 20:22 10,0 C 8,9 C 6,7 C 64 % 1026,4 hPa 0,0 l/m 0 min 0 min 0 W/m 0,0 km/h (0 Bft) 95,74 %
03.04.2021 20:24 10,0 C 8,9 C 6,7 C 64 % 1026,4 hPa 0,0 l/m 0 min 0 min 0 W/m 0,0 km/h (0 Bft) 95,74 %
03.04.2021 20:26 9,9 C 8,3 C 6,1 C 64 % 1026,4 hPa 0,0 l/m 0 min 0 min 0 W/m 3,2 km/h (1 Bft) 95,74 %
03.04.2021 20:28 9,9 C 8,3 C 6,1 C 65 % 1026,4 hPa 0,0 l/m 0 min 0 min 0 W/m 0,0 km/h (0 Bft) 95,74 %
03.04.2021 20:30 9,8 C 8,3 C 6,1 C 65 % 1026,4 hPa 0,0 l/m 0 min 0 min 0 W/m 6,4 km/h (2 Bft) 97,87 %
03.04.2021 20:32 9,7 C 8,3 C 6,1 C 65 % 1026,4 hPa 0,0 l/m 0 min 0 min 0 W/m 3,2 km/h (1 Bft) 97,87 %
03.04.2021 20:34 9,6 C 8,3 C 6,1 C 66 % 1026,5 hPa 0,0 l/m 0 min 0 min 0 W/m 6,4 km/h (2 Bft) 95,74 %
03.04.2021 20:36 9,6 C 8,3 C 6,1 C 66 % 1026,5 hPa 0,0 l/m 0 min 0 min 0 W/m 3,2 km/h (1 Bft) 95,74 %
03.04.2021 20:38 9,6 C 8,3 C 6,1 C 66 % 1026,5 hPa 0,0 l/m 0 min 0 min 0 W/m 6,4 km/h (2 Bft) 95,74 %
03.04.2021 20:40 9,5 C 8,3 C 6,1 C 66 % 1026,5 hPa 0,0 l/m 0 min 0 min 0 W/m 16,1 km/h (3 Bft) 95,74 %
03.04.2021 20:42 9,5 C 8,3 C 6,1 C 66 % 1026,6 hPa 0,0 l/m 0 min 0 min 0 W/m 16,1 km/h (3 Bft) 95,74 %
03.04.2021 20:44 9,4 C 8,3 C 6,1 C 67 % 1026,6 hPa 0,0 l/m 0 min 0 min 0 W/m 19,3 km/h (3 Bft) 95,65 %
03.04.2021 20:46 9,4 C 8,3 C 6,1 C 67 % 1026,6 hPa 0,0 l/m 0 min 0 min 0 W/m 12,9 km/h (3 Bft) 95,74 %
03.04.2021 20:48 9,3 C 8,3 C 6,1 C 67 % 1026,6 hPa 0,0 l/m 0 min 0 min 0 W/m 12,9 km/h (3 Bft) 93,62 %
03.04.2021 20:50 9,3 C 8,3 C 6,1 C 68 % 1026,6 hPa 0,0 l/m 0 min 0 min 0 W/m 16,1 km/h (3 Bft) 97,87 %
03.04.2021 20:52 9,3 C 7,8 C 5,6 C 68 % 1026,6 hPa 0,0 l/m 0 min 0 min 0 W/m 9,7 km/h (2 Bft) 97,87 %
03.04.2021 20:54 9,1 C 7,8 C 5,6 C 68 % 1026,6 hPa 0,0 l/m 0 min 0 min 0 W/m 12,9 km/h (3 Bft) 95,74 %
03.04.2021 20:56 9,1 C 7,8 C 5,6 C 69 % 1026,6 hPa 0,0 l/m 0 min 0 min 0 W/m 19,3 km/h (3 Bft) 97,83 %
03.04.2021 20:58 9,1 C 7,8 C 5,6 C 69 % 1026,6 hPa 0,0 l/m 0 min 0 min 0 W/m 12,9 km/h (3 Bft) 97,87 %
03.04.2021 21:00 9,0 C 8,3 C 5,6 C 69 % 1026,6 hPa 0,0 l/m 0 min 0 min 0 W/m 25,7 km/h (4 Bft) 97,87 %
03.04.2021 21:02 9,0 C 8,3 C 5,6 C 69 % 1026,6 hPa 0,0 l/m 0 min 0 min 0 W/m 12,9 km/h (3 Bft) 95,74 %
03.04.2021 21:04 9,0 C 7,8 C 5,6 C 70 % 1026,6 hPa 0,0 l/m 0 min 0 min 0 W/m 16,1 km/h (3 Bft) 97,87 %
03.04.2021 21:06 9,0 C 7,8 C 5,6 C 70 % 1026,7 hPa 0,0 l/m 0 min 0 min 0 W/m 19,3 km/h (3 Bft) 93,48 %
03.04.2021 21:08 8,9 C 7,8 C 5,6 C 70 % 1026,7 hPa 0,0 l/m 0 min 0 min 0 W/m 16,1 km/h (3 Bft) 97,87 %
03.04.2021 21:10 8,8 C 7,8 C 5,6 C 70 % 1026,8 hPa 0,0 l/m 0 min 0 min 0 W/m 19,3 km/h (3 Bft) 97,87 %
03.04.2021 21:12 8,8 C 7,8 C 5,6 C 70 % 1026,8 hPa 0,0 l/m 0 min 0 min 0 W/m 16,1 km/h (3 Bft) 97,87 %
03.04.2021 21:14 8,8 C 7,8 C 5,6 C 71 % 1026,8 hPa 0,0 l/m 0 min 0 min 0 W/m 16,1 km/h (3 Bft) 97,87 %
03.04.2021 21:16 8,7 C 7,8 C 5,0 C 71 % 1026,8 hPa 0,0 l/m 0 min 0 min 0 W/m 19,3 km/h (3 Bft) 95,74 %
03.04.2021 21:18 8,6 C 7,8 C 5,0 C 71 % 1026,8 hPa 0,0 l/m 0 min 0 min 0 W/m 16,1 km/h (3 Bft) 97,87 %
03.04.2021 21:20 8,6 C 7,2 C 5,0 C 71 % 1026,9 hPa 0,0 l/m 0 min 0 min 0 W/m 12,9 km/h (3 Bft) 97,83 %
03.04.2021 21:22 8,5 C 7,2 C 5,0 C 72 % 1026,8 hPa 0,0 l/m 0 min 0 min 0 W/m 16,1 km/h (3 Bft) 93,62 %
03.04.2021 21:24 8,4 C 7,2 C 5,0 C 72 % 1026,9 hPa 0,0 l/m 0 min 0 min 0 W/m 38,6 km/h (5 Bft) 95,74 %
03.04.2021 21:26 8,4 C 7,2 C 5,0 C 72 % 1026,8 hPa 0,0 l/m 0 min 0 min 0 W/m 32,2 km/h (5 Bft) 97,87 %
03.04.2021 21:28 8,4 C 7,2 C 5,0 C 72 % 1026,8 hPa 0,0 l/m 0 min 0 min 0 W/m 19,3 km/h (3 Bft) 100,00 %
03.04.2021 21:30 8,3 C 7,2 C 5,0 C 72 % 1026,8 hPa 0,0 l/m 0 min 0 min 0 W/m 19,3 km/h (3 Bft) 97,87 %
03.04.2021 21:32 8,3 C 7,2 C 5,0 C 72 % 1026,9 hPa 0,0 l/m 0 min 0 min 0 W/m 16,1 km/h (3 Bft) 97,83 %
03.04.2021 21:34 8,2 C 7,2 C 5,0 C 72 % 1026,9 hPa 0,0 l/m 0 min 0 min 0 W/m 12,9 km/h (3 Bft) 100,00 %
03.04.2021 21:36 8,2 C 7,2 C 4,5 C 73 % 1027,0 hPa 0,0 l/m 0 min 0 min 0 W/m 6,4 km/h (2 Bft) 100,00 %
03.04.2021 21:38 8,1 C 7,2 C 4,5 C 73 % 1027,0 hPa 0,0 l/m 0 min 0 min 0 W/m 19,3 km/h (3 Bft) 100,00 %
03.04.2021 21:40 8,0 C 7,2 C 4,5 C 73 % 1027,0 hPa 0,0 l/m 0 min 0 min 0 W/m 16,1 km/h (3 Bft) 100,00 %
03.04.2021 21:42 8,0 C 6,7 C 4,5 C 73 % 1027,0 hPa 0,0 l/m 0 min 0 min 0 W/m 16,1 km/h (3 Bft) 100,00 %
03.04.2021 21:44 7,9 C 6,7 C 4,5 C 73 % 1027,0 hPa 0,0 l/m 0 min 0 min 0 W/m 19,3 km/h (3 Bft) 97,87 %
03.04.2021 21:46 7,9 C 6,7 C 4,5 C 74 % 1027,1 hPa 0,0 l/m 0 min 0 min 0 W/m 22,5 km/h (4 Bft) 100,00 %
03.04.2021 21:48 7,8 C 6,7 C 4,5 C 74 % 1027,0 hPa 0,0 l/m 0 min 0 min 0 W/m 19,3 km/h (3 Bft) 97,87 %
03.04.2021 21:50 7,7 C 6,7 C 4,5 C 74 % 1027,1 hPa 0,0 l/m 0 min 0 min 0 W/m 12,9 km/h (3 Bft) 100,00 %
03.04.2021 21:52 7,6 C 6,7 C 4,5 C 74 % 1027,1 hPa 0,0 l/m 0 min 0 min 0 W/m 16,1 km/h (3 Bft) 95,74 %
03.04.2021 21:54 7,6 C 6,7 C 4,5 C 74 % 1027,1 hPa 0,0 l/m 0 min 0 min 0 W/m 19,3 km/h (3 Bft) 100,00 %
03.04.2021 21:56 7,6 C 6,7 C 4,5 C 74 % 1027,2 hPa 0,0 l/m 0 min 0 min 0 W/m 22,5 km/h (4 Bft) 97,87 %
03.04.2021 21:58 7,5 C 6,7 C 3,9 C 74 % 1027,1 hPa 0,0 l/m 0 min 0 min 0 W/m 22,5 km/h (4 Bft) 100,00 %
03.04.2021 22:00 7,5 C 6,7 C 3,9 C 74 % 1027,2 hPa 0,0 l/m 0 min 0 min 0 W/m 16,1 km/h (3 Bft) 97,87 %
03.04.2021 22:02 7,4 C 6,7 C 3,9 C 74 % 1027,2 hPa 0,0 l/m 0 min 0 min 0 W/m 25,7 km/h (4 Bft) 97,92 %
03.04.2021 22:04 7,4 C 6,7 C 3,9 C 74 % 1027,2 hPa 0,0 l/m 0 min 0 min 0 W/m 12,9 km/h (3 Bft) 97,87 %
03.04.2021 22:06 7,4 C 6,7 C 3,9 C 74 % 1027,2 hPa 0,0 l/m 0 min 0 min 0 W/m 22,5 km/h (4 Bft) 97,87 %
03.04.2021 22:08 7,4 C 6,7 C 3,9 C 75 % 1027,2 hPa 0,0 l/m 0 min 0 min 0 W/m 16,1 km/h (3 Bft) 97,87 %
03.04.2021 22:10 7,3 C 6,7 C 3,9 C 75 % 1027,3 hPa 0,0 l/m 0 min 0 min 0 W/m 12,9 km/h (3 Bft) 97,87 %
03.04.2021 22:12 7,3 C 6,1 C 3,9 C 75 % 1027,2 hPa 0,0 l/m 0 min 0 min 0 W/m 19,3 km/h (3 Bft) 97,87 %
03.04.2021 22:14 7,2 C 6,1 C 3,9 C 75 % 1027,3 hPa 0,0 l/m 0 min 0 min 0 W/m 12,9 km/h (3 Bft) 97,87 %
03.04.2021 22:16 7,2 C 6,1 C 3,9 C 75 % 1027,3 hPa 0,0 l/m 0 min 0 min 0 W/m 9,7 km/h (2 Bft) 97,83 %
03.04.2021 22:18 7,1 C 6,1 C 3,9 C 75 % 1027,4 hPa 0,0 l/m 0 min 0 min 0 W/m 22,5 km/h (4 Bft) 97,87 %
03.04.2021 22:20 7,1 C 6,1 C 3,9 C 75 % 1027,3 hPa 0,0 l/m 0 min 0 min 0 W/m 16,1 km/h (3 Bft) 97,87 %
03.04.2021 22:22 7,1 C 6,1 C 3,9 C 75 % 1027,4 hPa 0,0 l/m 0 min 0 min 0 W/m 16,1 km/h (3 Bft) 97,87 %
03.04.2021 22:24 7,1 C 6,1 C 3,9 C 75 % 1027,4 hPa 0,0 l/m 0 min 0 min 0 W/m 12,9 km/h (3 Bft) 97,87 %
03.04.2021 22:26 7,0 C 6,1 C 3,9 C 76 % 1027,4 hPa 0,0 l/m 0 min 0 min 0 W/m 19,3 km/h (3 Bft) 95,74 %
03.04.2021 22:28 7,0 C 6,1 C 3,9 C 76 % 1027,4 hPa 0,0 l/m 0 min 0 min 0 W/m 16,1 km/h (3 Bft) 97,87 %
03.04.2021 22:30 7,0 C 6,1 C 3,9 C 76 % 1027,4 hPa 0,0 l/m 0 min 0 min 0 W/m 16,1 km/h (3 Bft) 97,83 %
03.04.2021 22:32 6,9 C 6,1 C 3,9 C 76 % 1027,4 hPa 0,0 l/m 0 min 0 min 0 W/m 22,5 km/h (4 Bft) 98,11 %
03.04.2021 22:34 6,9 C 6,1 C 3,4 C 76 % 1027,5 hPa 0,0 l/m 0 min 0 min 0 W/m 12,9 km/h (3 Bft) 97,87 %
03.04.2021 22:36 6,8 C 6,1 C 3,4 C 76 % 1027,4 hPa 0,0 l/m 0 min 0 min 0 W/m 16,1 km/h (3 Bft) 97,87 %
03.04.2021 22:38 6,8 C 5,6 C 3,4 C 76 % 1027,5 hPa 0,0 l/m 0 min 0 min 0 W/m 9,7 km/h (2 Bft) 97,56 %
03.04.2021 22:40 6,8 C 5,6 C 3,4 C 76 % 1027,5 hPa 0,0 l/m 0 min 0 min 0 W/m 16,1 km/h (3 Bft) 93,48 %
03.04.2021 22:42 6,7 C 5,6 C 3,4 C 77 % 1027,5 hPa 0,0 l/m 0 min 0 min 0 W/m 16,1 km/h (3 Bft) 97,87 %
03.04.2021 22:44 6,7 C 5,6 C 3,4 C 77 % 1027,5 hPa 0,0 l/m 0 min 0 min 0 W/m 16,1 km/h (3 Bft) 100,00 %
03.04.2021 22:46 6,6 C 6,1 C 3,4 C 77 % 1027,6 hPa 0,0 l/m 0 min 0 min 0 W/m 9,7 km/h (2 Bft) 98,11 %
03.04.2021 22:48 6,6 C 5,6 C 3,4 C 77 % 1027,6 hPa 0,0 l/m 0 min 0 min 0 W/m 16,1 km/h (3 Bft) 97,87 %
03.04.2021 22:50 6,6 C 5,6 C 3,4 C 76 % 1027,6 hPa 0,0 l/m 0 min 0 min 0 W/m 19,3 km/h (3 Bft) 95,74 %
03.04.2021 22:52 6,6 C 5,6 C 3,4 C 76 % 1027,6 hPa 0,0 l/m 0 min 0 min 0 W/m 12,9 km/h (3 Bft) 54,35 %
03.04.2021 22:54 6,5 C 5,6 C 3,4 C 76 % 1027,6 hPa 0,0 l/m 0 min 0 min 0 W/m 19,3 km/h (3 Bft) 100,00 %
03.04.2021 22:56 6,5 C 5,6 C 3,4 C 76 % 1027,6 hPa 0,0 l/m 0 min 0 min 0 W/m 12,9 km/h (3 Bft) 100,00 %
03.04.2021 22:58 6,5 C 5,6 C 3,4 C 76 % 1027,6 hPa 0,0 l/m 0 min 0 min 0 W/m 12,9 km/h (3 Bft) 100,00 %
03.04.2021 23:00 6,4 C 5,6 C 3,4 C 77 % 1027,6 hPa 0,0 l/m 0 min 0 min 0 W/m 6,4 km/h (2 Bft) 100,00 %
03.04.2021 23:02 6,4 C 5,6 C 3,4 C 77 % 1027,6 hPa 0,0 l/m 0 min 0 min 0 W/m 16,1 km/h (3 Bft) 97,87 %
03.04.2021 23:04 6,4 C 5,6 C 3,4 C 77 % 1027,6 hPa 0,0 l/m 0 min 0 min 0 W/m 19,3 km/h (3 Bft) 100,00 %
03.04.2021 23:06 6,4 C 5,6 C 3,4 C 77 % 1027,6 hPa 0,0 l/m 0 min 0 min 0 W/m 16,1 km/h (3 Bft) 100,00 %
03.04.2021 23:08 6,3 C 5,6 C 3,4 C 77 % 1027,6 hPa 0,0 l/m 0 min 0 min 0 W/m 9,7 km/h (2 Bft) 100,00 %
03.04.2021 23:10 6,3 C 5,6 C 2,8 C 77 % 1027,7 hPa 0,0 l/m 0 min 0 min 0 W/m 16,1 km/h (3 Bft) 100,00 %
03.04.2021 23:12 6,2 C 5,6 C 2,8 C 77 % 1027,7 hPa 0,0 l/m 0 min 0 min 0 W/m 9,7 km/h (2 Bft) 100,00 %
03.04.2021 23:14 6,1 C 5,6 C 2,8 C 77 % 1027,6 hPa 0,0 l/m 0 min 0 min 0 W/m 6,4 km/h (2 Bft) 100,00 %
03.04.2021 23:16 6,1 C 5,6 C 2,8 C 77 % 1027,6 hPa 0,0 l/m 0 min 0 min 0 W/m 9,7 km/h (2 Bft) 100,00 %
03.04.2021 23:18 6,1 C 5,6 C 2,8 C 77 % 1027,7 hPa 0,0 l/m 0 min 0 min 0 W/m 16,1 km/h (3 Bft) 100,00 %
03.04.2021 23:20 6,1 C 5,0 C 2,8 C 77 % 1027,7 hPa 0,0 l/m 0 min 0 min 0 W/m 22,5 km/h (4 Bft) 100,00 %
03.04.2021 23:22 6,0 C 5,0 C 2,8 C 77 % 1027,7 hPa 0,0 l/m 0 min 0 min 0 W/m 19,3 km/h (3 Bft) 97,87 %
03.04.2021 23:24 6,0 C 5,0 C 2,8 C 77 % 1027,8 hPa 0,0 l/m 0 min 0 min 0 W/m 12,9 km/h (3 Bft) 100,00 %
03.04.2021 23:26 6,0 C 5,0 C 2,8 C 77 % 1027,8 hPa 0,0 l/m 0 min 0 min 0 W/m 12,9 km/h (3 Bft) 100,00 %
03.04.2021 23:28 6,0 C 5,0 C 2,8 C 77 % 1027,8 hPa 0,0 l/m 0 min 0 min 0 W/m 12,9 km/h (3 Bft) 100,00 %
03.04.2021 23:30 5,9 C 5,0 C 2,8 C 77 % 1027,8 hPa 0,0 l/m 0 min 0 min 0 W/m 19,3 km/h (3 Bft) 100,00 %
03.04.2021 23:32 5,9 C 5,0 C 2,8 C 77 % 1027,9 hPa 0,0 l/m 0 min 0 min 0 W/m 19,3 km/h (3 Bft) 100,00 %
03.04.2021 23:34 5,9 C 5,0 C 2,8 C 77 % 1027,8 hPa 0,0 l/m 0 min 0 min 0 W/m 6,4 km/h (2 Bft) 97,87 %
03.04.2021 23:36 5,8 C 5,0 C 2,8 C 77 % 1027,9 hPa 0,0 l/m 0 min 0 min 0 W/m 16,1 km/h (3 Bft) 100,00 %
03.04.2021 23:38 5,8 C 5,0 C 2,8 C 77 % 1027,8 hPa 0,0 l/m 0 min 0 min 0 W/m 16,1 km/h (3 Bft) 100,00 %
03.04.2021 23:40 5,8 C 5,0 C 2,8 C 77 % 1027,8 hPa 0,0 l/m 0 min 0 min 0 W/m 16,1 km/h (3 Bft) 97,87 %
03.04.2021 23:42 5,8 C 5,0 C 2,8 C 78 % 1027,7 hPa 0,0 l/m 0 min 0 min 0 W/m 12,9 km/h (3 Bft) 97,87 %
03.04.2021 23:44 5,7 C 5,0 C 2,8 C 78 % 1027,8 hPa 0,0 l/m 0 min 0 min 0 W/m 19,3 km/h (3 Bft) 100,00 %
03.04.2021 23:46 5,7 C 5,0 C 2,8 C 78 % 1027,8 hPa 0,0 l/m 0 min 0 min 0 W/m 22,5 km/h (4 Bft) 100,00 %
03.04.2021 23:48 5,6 C 5,0 C 2,8 C 78 % 1027,7 hPa 0,0 l/m 0 min 0 min 0 W/m 9,7 km/h (2 Bft) 100,00 %
03.04.2021 23:50 5,6 C 5,0 C 2,3 C 78 % 1027,8 hPa 0,0 l/m 0 min 0 min 0 W/m 12,9 km/h (3 Bft) 100,00 %
03.04.2021 23:52 5,6 C 4,4 C 2,3 C 78 % 1027,8 hPa 0,0 l/m 0 min 0 min 0 W/m 9,7 km/h (2 Bft) 100,00 %
03.04.2021 23:54 5,6 C 4,4 C 2,3 C 78 % 1027,8 hPa 0,0 l/m 0 min 0 min 0 W/m 19,3 km/h (3 Bft) 100,00 %
03.04.2021 23:56 5,5 C 4,4 C 2,3 C 78 % 1027,8 hPa 0,0 l/m 0 min 0 min 0 W/m 9,7 km/h (2 Bft) 97,87 %
03.04.2021 23:58 5,5 C 4,4 C 2,3 C 78 % 1027,8 hPa 0,0 l/m 0 min 0 min 0 W/m 9,7 km/h (2 Bft) 97,87 %
_ Min-Zeit 06:34 01:40 05:06 16:24 03:00 - - - - 00:02 00:02
Minimum _ 4,9 C 4,4 C 2,3 C 53 % 1025,3 hPa - - - - 0,0 km/h (0 Bft) 10,00 %
_ Max-Zeit 17:26 15:40 12:38 02:00 10:58 00:00 12:08 00:00 12:38 21:24 00:00
Maximum _ 13,2 C 21,7 C 16,7 C 87 % 1028,5 hPa 0,0 l/m 4 min 0 min 923 W/m 38,6 km/h
N-NW (5 Bft)
100,00 %
Durchschnitt _ 8,2 C 9,7 C 6,2 C 73 % 1026,9 hPa #0,0 l/m #7:38 h #0 min. 350 W/m 14,2 km/h (3 Bft) 96,57 %
© 2021 W. Hausmann